GFSNGP_850_spd_057.txt.gz
Wind_Speed
12 13 14 16 18 19 13 9 4 11 14 4 10 11 20 23 24 23 23 15 12 17 31 32 53 46 39 49 52 49 48 51 52 47 45 44 46 46 46 46 43 40 40 41
13 12 17 17 17 20 19 16 15 13 16 6 20 25 23 27 27 21 22 16 18 27 32 47 47 52 38 40 51 54 51 52 49 46 43 44 44 44 43 46 47 43 42 42
7 8 13 12 12 16 18 18 11 12 10 10 9 14 18 25 28 32 33 32 32 34 20 43 41 24 40 47 47 53 54 52 50 46 44 43 44 43 44 43 44 48 45 42
4 5 3 9 8 14 18 17 18 19 13 11 10 22 27 23 26 30 34 40 26 23 5 27 33 24 28 30 38 52 57 56 53 50 46 43 42 44 43 43 42 43 46 45
3 4 9 14 12 10 7 10 10 8 12 27 23 21 17 18 21 28 30 38 36 23 14 19 4 18 26 27 20 34 44 56 55 52 48 46 43 41 42 42 43 41 41 42
2 4 6 6 6 19 5 9 12 17 14 21 25 7 5 30 36 37 39 40 39 37 37 29 18 7 11 43 55 41 40 54 53 52 49 48 44 42 40 40 41 42 42 41
7 6 6 12 25 15 3 5 29 26 17 23 9 11 26 29 42 42 44 42 35 33 35 40 28 17 10 12 34 39 48 44 55 53 51 48 45 43 41 40 40 41 42 42
5 3 5 30 17 6 14 33 24 32 29 29 31 38 34 27 40 45 45 40 35 31 36 27 22 22 15 23 26 24 24 42 52 53 50 48 47 46 44 42 42 41 42 42
3 5 21 16 15 24 21 27 33 30 33 31 34 46 47 42 43 41 43 35 35 32 41 26 26 25 27 27 19 12 23 23 49 44 45 46 47 48 46 45 44 43 43 43
5 3 15 24 20 20 25 29 36 40 36 30 30 38 48 45 35 31 29 25 26 36 34 30 26 25 26 27 28 25 23 30 29 47 42 43 45 46 47 47 46 44 44 44
5 13 22 9 28 25 27 25 29 37 34 37 31 33 34 34 32 25 25 19 19 22 25 23 25 23 25 28 28 30 31 28 32 40 47 44 46 46 47 48 48 46 45 42
3 15 14 19 26 25 25 29 28 37 19 22 18 18 25 35 23 21 16 17 19 17 15 19 20 21 22 23 26 30 33 31 35 36 47 47 47 47 45 46 45 44 40 40
6 15 17 17 20 23 22 23 20 22 20 18 16 17 14 22 19 17 11 8 8 9 14 14 16 14 22 21 24 25 31 35 32 39 44 48 47 50 45 42 43 43 40 37
14 13 11 10 14 19 24 20 17 16 15 23 18 20 22 15 11 13 9 5 4 6 7 10 13 14 16 23 23 22 26 27 30 38 40 42 45 46 48 51 46 41 39 38
8 13 14 12 13 14 22 26 20 19 18 14 15 21 22 21 16 9 6 3 2 4 4 7 4 7 9 7 16 23 23 30 29 29 35 38 40 43 45 46 48 44 40 40
5 5 7 10 13 13 13 25 27 22 20 18 15 20 21 16 13 12 7 4 4 2 8 6 5 4 6 8 13 16 23 29 33 33 33 34 37 41 45 42 43 43 44 42
4 5 8 13 12 12 12 15 23 25 24 18 16 14 16 19 16 15 14 11 8 7 10 10 6 6 6 5 4 9 11 23 30 34 34 36 35 39 33 35 38 36 34 33
4 4 6 9 11 11 10 16 18 21 23 22 18 16 17 18 21 18 18 16 12 10 9 12 13 8 7 7 9 9 8 15 20 21 25 29 29 30 30 35 27 26 22 20
7 7 7 6 7 7 8 9 15 15 21 26 23 26 15 16 18 16 17 19 17 18 14 13 9 10 9 13 9 15 8 11 17 19 19 19 19 21 22 26 22 9 4 11
6 4 6 5 6 11 5 6 12 15 17 17 23 27 20 16 17 19 20 21 20 17 15 13 10 8 5 9 18 22 16 16 18 20 20 19 21 25 23 21 23 33 22 15
1 2 6 4 6 4 3 5 10 9 12 15 17 22 18 19 21 22 23 24 20 16 15 14 11 10 7 5 7 16 20 19 21 20 18 19 21 22 21 22 25 27 27 26
5 5 3 3 7 4 3 3 4 7 6 12 17 22 23 26 24 24 23 22 23 20 15 14 16 12 9 1 7 12 17 16 18 17 19 20 19 24 24 25 26 26 26 23
4 1 5 7 1 7 3 5 1 4 10 14 18 21 28 34 37 39 36 31 29 26 23 20 15 18 13 13 17 16 14 13 14 15 17 18 18 21 21 19 19 18 19 22
3 2 4 3 2 6 6 4 6 4 6 8 16 20 21 27 31 31 34 40 43 44 41 31 26 19 17 18 21 24 23 22 20 19 19 19 18 17 19 19 16 14 15 16
3 5 3 4 6 3 13 13 10 8 7 7 9 15 18 20 26 26 28 28 34 36 38 40 42 38 35 33 27 26 26 23 22 19 19 18 18 18 18 16 16 14 14 15
6 3 7 13 5 11 15 12 11 9 7 8 8 9 16 19 19 21 24 26 28 29 32 35 35 38 39 39 38 36 34 30 27 25 23 22 21 21 20 19 18 17 15 14
9 6 5 6 5 8 7 12 13 9 8 7 9 9 5 13 15 15 17 18 23 25 27 28 29 30 30 31 34 36 35 33 30 28 28 27 25 23 21 20 19 18 16 15

GFSNGP_850_spd_060.txt.gz
Wind_Speed
2 4 5 8 14 11 5 4 3 6 6 3 3 7 16 26 25 23 16 3 1 14 24 28 25 23 27 31 41 48 48 50 49 47 44 43 43 47 50 48 47 44 40 37
7 8 9 8 10 12 9 5 5 7 5 5 8 20 18 16 24 25 22 11 19 26 20 32 31 35 32 30 28 42 46 49 49 48 47 46 43 43 46 50 52 49 48 44
3 7 8 7 4 5 8 3 0 4 6 5 8 13 14 18 21 18 20 23 28 29 26 34 17 8 29 34 31 36 43 47 47 47 46 46 44 42 44 45 48 53 52 48
3 4 3 6 7 9 11 3 6 2 7 11 11 11 17 17 17 19 22 25 28 31 27 28 22 12 12 9 28 36 36 39 44 47 45 44 42 41 43 44 46 49 51 52
3 4 7 13 7 7 7 6 12 10 14 13 19 15 9 14 21 23 25 28 29 29 28 28 27 27 19 16 21 25 43 42 34 42 45 48 44 40 40 42 43 45 47 46
2 3 5 1 14 23 17 4 17 17 19 20 18 4 3 24 26 23 25 29 33 30 27 17 20 24 20 15 19 30 36 43 39 32 40 52 49 45 41 41 41 42 43 46
3 4 4 8 21 21 4 4 24 20 23 28 8 11 27 32 38 28 26 28 33 33 25 22 17 17 18 20 22 21 27 36 38 36 32 49 53 52 45 43 42 41 42 42
3 3 5 17 7 2 13 22 20 27 24 31 33 31 30 28 30 39 39 33 32 34 24 22 22 20 21 21 23 22 18 23 25 31 35 41 52 56 53 48 45 43 43 42
6 5 10 12 13 20 15 23 24 27 28 27 33 38 43 47 42 39 42 38 37 36 30 23 23 22 23 25 20 18 19 24 37 40 42 50 49 56 57 52 50 48 46 45
1 5 6 20 11 17 22 26 26 26 30 30 37 35 38 39 43 40 38 35 37 34 33 31 26 24 22 23 23 17 33 26 31 35 37 50 53 57 56 54 54 52 50 48
6 13 12 9 15 19 22 26 27 29 25 26 30 24 28 33 38 38 33 28 31 32 31 35 30 30 24 24 24 24 29 33 28 29 35 39 47 54 54 55 52 52 53 49
5 9 7 16 16 19 20 27 22 24 23 21 21 19 19 26 30 36 34 24 28 27 27 31 32 31 30 28 23 25 26 30 28 26 31 32 36 49 50 52 51 49 50 47
8 8 13 18 15 11 17 23 27 20 19 21 21 18 19 24 21 25 19 22 29 28 30 31 30 30 30 29 26 27 28 29 29 27 27 32 36 44 51 51 49 47 45 46
15 18 20 13 14 15 17 19 29 22 20 17 16 15 17 19 21 13 0 12 20 21 23 24 24 27 32 31 27 28 29 31 32 29 28 33 38 42 47 51 51 47 44 42
12 14 16 17 19 19 16 18 24 29 25 21 17 14 16 15 18 16 14 4 14 16 17 20 21 24 25 29 31 28 27 29 29 27 29 30 36 41 46 46 47 47 45 43
6 10 12 14 14 16 15 16 19 25 25 23 19 16 15 13 13 14 12 6 3 8 11 14 17 21 22 25 29 32 30 30 31 30 29 31 34 38 41 43 44 46 43 44
9 12 13 14 15 16 14 12 14 17 27 24 26 22 15 16 12 14 12 9 4 5 7 11 15 18 19 23 27 31 26 28 28 30 30 31 33 34 33 35 38 40 38 37
14 12 13 13 15 16 12 13 12 18 17 23 31 27 15 17 15 16 13 11 6 3 4 7 10 13 16 14 19 20 18 17 26 27 26 29 31 37 36 36 33 35 37 33
16 13 10 12 13 12 12 11 11 13 18 21 22 26 20 17 18 14 13 14 11 9 8 6 6 7 13 9 12 17 15 19 25 26 28 27 24 26 32 32 33 34 36 33
11 10 9 10 12 10 9 9 11 11 17 18 23 22 21 18 18 18 13 14 14 12 9 10 8 5 7 10 6 15 18 23 24 23 23 22 22 30 33 35 33 29 26 25
9 10 11 10 11 12 11 7 7 7 14 17 20 30 24 18 20 22 21 22 21 15 15 13 10 7 1 2 5 11 20 21 21 23 27 31 35 33 33 32 33 31 25 25
7 8 9 9 10 8 8 4 4 5 9 13 16 25 30 32 27 29 34 34 26 19 19 20 16 9 7 11 14 16 18 21 23 20 18 15 21 32 31 32 32 35 37 34
4 6 8 4 3 7 3 1 4 3 7 12 12 19 26 26 28 32 33 34 37 30 23 25 25 25 19 8 18 23 22 23 21 26 24 24 24 20 21 34 33 32 32 29
5 5 4 3 1 4 1 4 2 2 4 9 15 16 20 23 26 27 26 30 34 36 42 33 28 22 25 19 23 22 27 26 22 20 21 24 25 26 25 23 24 25 24 20
9 8 11 7 2 2 7 6 1 2 5 6 13 15 15 19 21 24 26 27 28 36 38 41 40 35 32 30 30 29 32 29 24 23 24 24 24 24 23 22 22 21 22 22
3 6 11 6 6 7 12 6 3 3 3 7 8 9 13 17 18 20 22 24 26 27 26 28 32 37 38 37 35 37 37 34 29 29 30 29 28 27 27 25 24 22 22 22
5 9 9 18 15 8 14 9 6 6 8 6 5 7 10 9 12 14 14 20 21 18 23 25 29 30 30 35 40 39 37 34 31 32 31 31 31 29 27 26 25 24 22 20

GFSNGP_850_spd_063.txt.gz
Wind_Speed
3 2 2 1 4 5 4 2 1 3 4 7 8 8 16 22 25 32 29 31 23 8 19 17 19 12 18 24 33 37 43 46 48 47 43 38 36 33 35 42 42 43 40 36
5 5 4 3 4 5 7 5 6 6 1 6 12 17 22 21 23 26 26 28 28 25 12 23 25 17 14 27 31 30 34 39 42 42 46 43 38 38 36 35 41 44 45 44
4 6 7 5 6 5 2 1 3 4 4 12 10 18 16 19 21 23 25 26 26 25 22 19 23 20 13 8 24 36 27 30 34 38 44 43 40 40 39 38 37 40 45 48
1 5 2 4 7 8 1 7 8 6 9 12 13 20 7 11 20 25 26 27 27 26 22 15 14 19 16 6 4 24 28 27 30 34 40 40 40 40 39 37 38 40 41 44
3 2 5 2 5 5 4 2 7 6 10 13 26 24 14 14 21 27 27 27 28 26 24 23 16 20 20 11 3 4 16 24 27 34 38 39 40 41 38 35 35 38 40 42
2 3 4 0 5 13 3 5 7 14 9 9 8 5 7 21 31 34 31 29 29 29 28 25 23 18 19 19 10 9 10 18 20 33 39 39 38 37 38 34 34 34 36 37
3 3 3 3 14 11 5 2 14 12 19 17 10 11 32 38 38 35 36 35 32 30 31 27 26 25 20 18 20 15 10 11 20 20 30 36 36 37 34 31 32 35 37 36
2 1 6 7 5 1 8 17 16 23 23 22 22 19 24 35 39 38 37 36 34 34 32 32 28 29 27 23 19 21 16 8 7 14 25 27 29 30 31 29 35 34 36 40
7 5 3 1 4 7 8 14 20 24 24 24 29 24 23 34 33 32 33 35 33 35 35 36 32 28 33 29 26 23 19 17 17 14 16 26 28 30 31 33 35 36 39 41
3 4 6 9 11 7 11 17 22 27 26 24 30 27 27 27 24 24 25 32 32 30 35 36 37 31 31 36 31 27 25 24 20 22 17 16 22 23 25 34 38 39 40 43
4 15 20 17 11 11 15 17 22 27 24 24 23 28 26 24 21 22 26 31 33 31 33 36 34 35 31 36 36 34 28 27 24 25 21 17 18 20 25 29 35 39 42 42
6 11 8 10 8 11 17 15 20 25 29 23 23 26 27 24 24 25 26 26 33 34 32 35 33 32 32 34 37 38 34 31 27 26 24 19 17 24 24 27 32 40 42 43
6 3 11 15 18 18 17 18 19 22 26 24 25 24 24 25 28 33 30 26 19 28 30 30 30 33 32 33 35 41 36 35 32 28 26 23 26 23 31 30 34 40 42 45
14 17 17 13 12 14 18 22 21 21 25 25 24 19 20 23 22 26 26 24 20 17 24 29 33 34 32 31 32 35 37 32 34 29 24 26 28 27 28 33 40 39 42 41
16 16 18 16 18 16 14 15 17 18 20 21 20 20 20 20 22 23 21 21 20 18 23 24 31 31 30 29 31 30 34 35 33 32 28 27 29 28 29 37 38 40 39 38
7 12 17 17 18 16 14 15 15 16 22 24 24 24 23 17 21 20 18 18 18 19 22 22 29 27 30 28 28 32 33 35 32 30 31 30 29 32 33 38 36 40 43 37
11 12 9 12 12 13 15 17 16 16 22 24 30 27 30 21 21 20 17 17 18 17 19 21 26 27 25 26 28 31 34 34 29 32 34 34 36 35 33 34 34 36 36 35
17 14 13 11 13 15 18 15 15 15 19 24 27 29 26 22 21 23 23 18 20 16 17 20 21 21 21 22 26 29 34 34 34 33 33 33 34 31 31 31 35 35 34 31
16 19 18 14 10 12 14 15 13 13 18 18 22 21 18 18 19 24 18 15 17 20 16 14 14 15 17 19 24 26 30 35 36 37 29 31 33 30 29 30 35 38 37 34
15 15 17 14 11 12 14 12 10 9 14 15 19 25 23 20 24 27 25 21 18 19 18 12 11 12 14 16 19 20 23 28 29 32 32 34 30 30 27 27 33 35 36 33
16 14 14 12 14 11 7 6 8 6 9 9 17 20 25 27 28 26 29 31 25 19 14 11 7 5 7 11 14 17 18 19 23 26 29 29 32 33 30 27 31 35 35 36
13 12 10 11 13 13 7 6 7 4 4 7 13 19 22 27 27 27 30 30 30 23 18 15 11 7 4 1 6 6 8 11 14 14 16 25 30 30 26 32 35 35 38 39
15 13 13 12 11 11 8 7 3 3 3 9 8 12 18 21 26 30 31 35 32 34 24 21 15 17 15 11 13 13 14 11 10 13 12 15 21 22 29 32 33 35 34 33
21 14 11 12 12 9 9 7 2 2 2 6 6 10 14 17 19 19 27 22 28 42 39 28 21 22 22 26 26 24 22 23 21 13 16 20 22 28 26 22 24 27 26 27
9 10 9 8 5 9 9 7 3 5 3 2 7 9 12 16 17 17 15 26 27 27 40 44 37 29 28 29 30 30 28 25 22 20 19 24 17 38 36 32 30 29 27 25
7 7 11 8 6 6 9 6 4 5 2 2 3 6 7 11 14 15 17 14 21 24 25 35 41 42 38 35 35 34 34 36 32 26 20 22 32 38 36 33 29 29 28 24
4 5 6 6 4 13 10 7 4 3 2 2 5 8 8 9 12 13 16 17 14 18 23 21 25 35 39 42 43 40 38 36 33 31 30 34 31 33 32 29 26 25 24 21

GFSNGP_850_spd_069.txt.gz
Wind_Speed
7 5 2 3 1 4 5 4 2 10 8 6 8 9 11 13 16 21 27 28 26 25 24 22 15 9 2 10 20 22 22 25 28 30 33 40 41 38 34 32 30 32 34 33
3 4 3 3 4 2 1 1 3 5 6 3 5 5 8 12 14 17 19 21 23 21 22 22 21 15 10 7 7 18 26 27 26 31 32 34 36 38 39 38 35 33 35 37
4 3 2 5 1 2 4 5 2 5 5 6 5 11 11 12 9 14 17 20 21 21 20 21 21 18 14 10 9 7 18 27 29 29 30 31 32 34 36 37 38 38 38 36
4 4 5 5 3 2 4 7 5 4 6 7 10 15 17 7 5 12 19 22 23 23 23 19 19 17 15 13 10 10 13 16 28 30 28 28 29 31 31 32 34 35 38 39
4 5 2 3 1 1 1 4 5 4 8 10 14 14 1 4 10 19 22 23 23 23 25 25 22 20 16 15 14 8 8 9 14 21 25 25 27 29 28 30 32 33 35 37
3 3 6 5 5 1 3 4 3 4 7 12 14 5 3 10 24 29 26 26 27 27 27 27 25 24 21 17 14 14 12 8 8 14 21 24 27 29 30 30 30 30 32 34
3 3 1 6 5 5 3 4 1 2 5 7 7 10 22 26 26 24 25 27 28 28 26 25 27 28 26 22 19 16 16 14 10 12 16 26 28 27 28 29 28 31 32 32
2 2 5 12 6 5 5 4 3 1 4 7 11 17 22 25 25 24 26 25 23 25 30 26 26 27 29 29 23 21 19 19 16 12 11 15 21 24 25 26 27 28 31 31
6 3 2 11 3 3 3 3 2 2 5 9 12 17 22 24 26 26 26 25 24 24 26 28 25 25 29 30 30 25 24 22 21 20 18 14 16 18 25 26 29 30 30 29
1 7 13 12 10 6 6 4 5 4 6 9 12 18 23 24 25 27 27 27 25 26 27 29 29 27 29 30 30 31 28 28 25 26 24 19 17 16 20 23 28 31 32 32
5 8 4 12 15 10 10 9 8 8 10 12 14 17 19 23 25 27 32 30 29 26 28 30 30 33 32 35 33 32 33 31 31 28 28 25 22 20 20 21 23 28 28 27
5 9 4 5 10 12 11 11 9 9 9 11 12 15 17 20 23 29 31 30 31 31 30 30 33 34 36 35 33 32 34 34 34 31 29 28 28 27 25 22 22 23 31 35
4 12 8 8 11 11 10 8 8 9 9 10 11 14 18 23 25 25 29 32 33 33 34 35 36 32 30 29 29 28 28 30 32 33 32 32 30 29 31 28 27 25 23 27
16 13 8 13 8 11 10 7 9 11 13 14 16 17 21 25 27 29 32 34 38 32 33 33 33 33 31 28 29 29 31 30 31 32 35 34 32 30 29 32 31 30 26 25
22 21 8 8 10 10 10 11 13 14 13 14 14 18 23 26 28 28 29 31 32 32 31 33 33 32 31 31 30 29 29 32 34 34 35 36 33 35 30 28 32 34 35 33
20 20 19 18 14 13 15 14 13 10 10 11 12 18 24 28 25 23 26 29 31 32 31 30 32 29 28 30 32 33 33 31 32 35 36 37 37 35 34 34 33 35 38 38
16 15 18 18 16 11 14 14 11 11 10 9 13 18 21 23 22 24 29 31 29 30 29 29 29 29 28 29 32 34 33 32 31 34 34 34 35 36 36 34 33 34 37 38
18 14 13 12 11 13 11 14 13 10 11 12 11 14 17 17 22 23 24 28 35 32 31 31 27 26 26 26 25 28 31 32 33 35 36 36 35 35 34 33 32 31 34 37
17 17 17 19 18 17 16 14 13 12 13 10 9 10 13 11 17 22 24 31 35 38 37 34 25 25 26 25 24 26 30 33 32 33 33 34 35 35 35 34 34 33 33 37
17 18 17 16 15 17 19 17 14 13 12 10 6 8 8 10 18 20 26 28 30 32 33 30 28 26 23 21 22 22 26 32 33 34 32 33 33 33 32 32 33 34 30 28
14 17 19 18 17 14 15 16 13 11 9 8 5 6 9 16 21 21 21 31 37 33 33 29 26 25 22 17 20 23 24 27 31 31 32 33 33 33 34 36 35 37 38 35
13 14 16 14 15 15 14 15 13 10 9 7 4 4 9 14 19 19 16 21 37 35 33 33 28 24 18 15 12 12 14 18 22 26 29 31 33 34 34 32 31 31 32 33
13 13 13 15 14 12 10 14 14 11 9 6 4 3 6 13 16 19 18 19 29 34 34 35 30 25 18 15 11 6 4 6 10 15 19 23 27 30 30 28 27 28 27 27
10 9 10 11 13 20 21 16 15 13 10 6 2 3 7 11 13 14 19 13 20 31 35 36 39 38 33 26 19 14 11 8 5 0 4 9 14 21 22 21 21 21 23 22
9 8 13 20 9 2 16 15 16 14 10 6 2 5 5 6 11 13 15 13 14 20 30 33 33 40 44 44 40 27 21 15 13 9 10 12 14 16 18 19 19 19 18 17
8 10 9 11 14 5 9 16 16 11 8 5 2 3 2 7 10 11 15 13 14 13 19 28 30 30 32 42 45 44 37 29 19 19 20 19 21 23 27 28 27 27 29 29
9 9 9 7 10 7 14 8 9 8 5 4 4 4 5 8 10 11 14 13 13 14 16 16 23 28 28 32 36 41 42 39 31 24 26 27 27 33 35 36 38 38 37 32

GFSNGP_850_spd_072.txt.gz
Wind_Speed
6 6 4 3 3 2 1 5 7 17 16 13 11 11 13 13 15 18 21 21 21 22 23 22 18 11 8 7 2 5 11 16 18 19 20 23 24 27 30 29 28 26 27 26
3 1 1 5 3 2 2 3 6 12 14 11 9 9 9 10 11 14 17 20 19 18 20 21 21 17 9 7 3 3 8 14 16 19 18 20 22 26 29 31 33 32 29 28
9 3 3 8 10 5 6 2 1 10 13 5 7 5 6 6 6 11 14 16 17 20 20 19 19 18 17 12 7 3 4 7 15 20 19 19 20 21 26 32 33 35 36 33
3 6 8 7 4 2 4 6 6 10 8 5 2 3 4 6 8 11 14 16 16 16 17 19 16 14 14 14 12 6 4 1 6 11 16 17 20 22 23 25 27 31 34 37
4 10 4 7 6 6 11 9 3 4 4 3 5 5 9 6 9 13 15 15 15 16 17 18 17 19 16 12 13 13 11 6 6 3 9 12 19 24 25 25 26 27 29 32
4 4 5 10 6 4 3 6 7 4 3 4 7 6 12 9 15 16 15 17 18 18 17 16 17 18 18 18 18 14 13 12 10 9 9 11 19 26 28 28 29 26 26 29
7 5 1 7 7 5 7 5 9 4 2 2 4 6 13 15 15 15 16 16 18 19 18 16 17 18 18 18 18 20 18 16 15 14 9 9 13 20 25 27 28 27 29 27
5 4 6 12 6 4 8 8 5 3 1 1 3 5 8 12 14 15 16 17 16 17 17 19 18 18 19 19 19 22 22 23 20 18 16 15 18 18 17 23 28 29 30 28
4 1 2 15 2 6 4 5 4 3 2 1 4 6 10 12 14 15 16 18 18 18 19 18 19 19 22 22 23 24 25 25 27 24 23 21 20 20 19 16 22 28 30 27
2 6 10 14 9 6 7 6 6 5 3 2 5 7 10 11 13 14 15 18 18 20 20 20 18 20 23 24 24 25 27 27 27 30 30 28 23 20 21 18 18 20 24 32
7 10 5 14 15 11 11 9 7 6 4 5 6 7 9 12 14 15 16 17 18 19 21 24 23 22 21 24 25 27 27 27 26 26 32 31 27 23 22 25 20 19 23 23
6 8 13 4 17 17 13 13 10 8 6 6 6 7 9 12 14 17 19 20 19 20 23 25 25 25 24 25 25 27 28 27 25 25 26 26 27 27 26 31 31 26 28 28
8 8 9 7 10 15 15 13 12 10 9 8 8 9 11 13 15 19 20 21 21 22 25 26 26 27 28 25 26 24 28 27 27 26 26 27 28 27 28 28 30 35 32 30
11 10 9 11 11 13 13 12 12 11 10 10 10 10 10 12 15 18 20 19 20 21 22 23 25 27 29 28 28 29 28 30 29 28 32 28 29 30 28 28 27 28 26 26
16 17 7 10 14 11 14 13 12 12 11 11 11 11 10 12 14 16 16 16 19 21 24 27 28 29 28 26 28 29 30 30 27 26 27 31 30 31 32 32 31 29 26 27
16 18 17 12 12 14 15 15 15 13 11 10 9 9 10 10 12 14 15 15 17 22 27 29 28 30 30 28 29 32 32 30 30 29 30 31 30 32 34 34 34 32 31 29
9 16 18 19 19 18 17 16 17 15 13 11 11 11 9 9 11 12 13 15 19 25 28 32 32 31 30 29 29 30 31 32 31 30 29 31 31 34 35 34 36 34 34 30
12 17 16 18 18 18 19 17 17 17 15 13 12 10 9 9 9 9 12 17 21 27 28 31 32 30 29 29 30 32 33 32 32 35 34 35 36 37 37 34 34 36 36 32
17 19 20 18 19 19 18 18 17 17 16 15 12 12 10 7 9 11 12 16 22 30 33 34 32 30 30 28 26 27 31 33 34 36 37 36 37 38 39 40 36 33 34 33
15 18 20 21 21 21 22 21 19 18 16 14 13 11 9 8 9 11 13 15 19 25 31 32 31 30 30 29 25 23 26 29 33 35 36 36 34 35 36 38 39 33 32 33
9 11 14 16 18 20 23 22 21 20 17 16 14 11 9 8 9 12 14 12 19 24 27 30 31 30 28 26 26 25 24 25 27 30 33 36 37 37 38 38 37 35 37 34
9 12 14 16 17 20 19 21 21 19 18 18 15 11 7 7 9 11 13 10 12 23 21 28 31 31 26 22 21 20 19 21 20 21 24 30 34 37 40 40 40 41 42 40
9 10 11 11 12 15 17 14 15 19 19 17 14 10 6 6 6 9 11 12 9 16 18 22 27 31 30 32 24 18 17 17 19 20 22 23 26 29 32 36 39 40 39 39
6 6 7 9 11 14 17 21 16 13 16 16 12 9 6 5 4 6 11 11 11 14 13 21 23 24 32 31 32 30 19 15 14 14 15 16 18 20 23 26 29 31 33 34
6 7 10 11 12 17 18 17 19 22 17 14 10 6 5 3 6 8 9 12 13 13 12 18 25 23 27 30 32 31 32 23 17 13 10 8 7 9 12 16 20 22 26 29
6 8 10 9 11 14 5 14 21 16 14 9 7 4 2 2 3 6 10 10 11 14 16 17 20 26 26 27 30 32 32 31 25 17 10 6 4 7 9 10 13 15 19 23
6 9 9 8 7 9 14 16 18 14 10 7 5 2 1 1 3 7 11 13 13 13 13 13 16 20 24 24 27 29 30 30 29 25 22 14 7 10 15 17 22 24 25 28

GFSNGP_850_spd_075.txt.gz
Wind_Speed
3 8 9 12 14 9 16 17 13 20 19 17 15 16 21 18 17 18 19 20 21 21 22 17 14 8 5 2 4 7 12 9 12 15 17 20 19 20 21 21 21 20 19 21
10 5 5 5 6 6 8 5 8 20 19 16 16 18 15 14 15 16 16 15 16 16 17 19 19 17 10 4 8 6 8 11 3 9 16 15 17 20 22 23 24 24 23 23
14 13 4 10 12 10 8 6 11 14 18 14 13 12 9 11 11 11 11 11 12 12 13 13 13 14 13 10 8 2 4 8 11 16 16 17 17 20 20 24 24 26 27 26
12 9 13 4 1 4 6 5 8 13 13 15 13 9 8 11 9 8 8 9 9 9 11 13 12 13 12 11 10 9 5 3 5 9 12 16 21 20 23 22 23 26 29 30
11 9 5 8 7 7 12 10 2 12 10 12 11 12 12 7 6 6 7 7 7 9 10 10 9 12 15 11 13 12 11 9 10 4 7 11 17 18 20 23 26 28 27 29
7 9 14 13 11 4 2 10 12 8 8 7 8 10 13 3 4 5 6 7 8 9 9 8 9 10 11 11 13 11 15 12 10 10 16 15 15 14 13 21 22 23 24 28
8 7 1 10 8 6 9 6 12 9 7 4 2 12 5 3 4 5 6 8 10 9 9 9 10 11 12 12 11 13 14 15 15 14 13 12 17 19 20 16 21 25 25 29
8 10 10 13 6 6 11 14 13 8 7 5 5 3 3 4 5 6 6 7 8 10 11 12 13 13 13 14 15 16 18 19 18 18 18 18 19 19 20 19 21 21 26 26
4 3 6 6 2 8 7 9 7 7 7 6 5 3 2 3 5 6 7 8 9 9 11 12 13 14 16 16 17 19 20 22 23 22 22 23 23 23 20 19 21 22 22 23
2 7 7 11 8 7 6 6 7 7 7 6 4 2 1 2 4 5 7 9 11 12 13 13 13 15 17 19 20 21 23 25 25 25 25 24 25 25 23 19 19 18 21 15
10 10 5 12 13 10 8 8 8 8 6 4 3 2 1 1 3 5 8 11 13 14 14 16 17 18 17 19 20 22 24 25 26 25 26 26 25 25 23 25 20 19 20 21
7 7 12 12 18 16 13 13 11 10 8 6 5 4 3 3 3 6 9 11 14 15 16 17 18 19 19 19 20 23 25 25 24 24 25 25 25 26 27 29 33 32 32 29
16 15 10 8 7 15 16 14 12 11 9 8 7 6 6 5 5 7 9 11 12 13 15 18 19 19 20 22 21 22 24 26 27 26 26 26 28 27 28 27 30 31 35 36
19 12 11 10 10 12 16 14 12 11 11 10 9 8 7 7 7 9 11 13 12 13 14 16 19 22 22 22 23 24 25 27 29 32 29 29 29 30 30 30 30 29 26 26
13 14 13 13 12 14 14 14 14 13 12 11 11 10 9 8 8 11 12 13 13 13 13 17 20 24 24 26 27 26 25 26 28 31 31 30 30 29 31 32 33 33 30 29
15 12 16 11 13 15 15 16 15 15 14 12 13 10 9 8 8 9 12 13 13 14 16 19 22 24 25 27 27 28 26 26 27 29 35 35 32 31 33 33 35 36 35 33
15 19 19 18 16 15 16 15 16 18 17 15 15 12 10 10 10 11 9 10 12 14 18 20 25 25 27 28 29 32 32 32 28 31 34 33 36 37 33 33 35 36 36 34
9 7 12 12 18 20 20 19 19 19 19 18 16 14 12 13 11 12 11 12 11 15 16 21 26 27 26 25 26 27 29 29 28 30 33 33 36 37 39 35 36 36 35 34
12 12 13 19 20 19 21 21 22 21 22 19 18 17 15 14 11 11 12 11 13 15 16 20 27 25 27 29 27 27 27 29 29 32 33 35 37 38 40 40 40 35 37 38
16 16 16 19 22 23 23 22 21 20 21 23 22 17 18 15 11 11 11 11 13 9 15 17 21 24 27 27 28 27 23 24 27 30 32 30 34 36 38 40 40 38 36 37
10 11 13 15 17 18 20 23 23 24 23 26 26 20 19 15 12 10 11 11 9 10 13 15 18 20 24 26 31 28 26 28 26 28 26 29 31 34 37 43 40 38 38 39
6 8 12 14 15 17 19 20 21 26 34 30 25 19 19 14 11 11 11 9 8 11 11 12 16 22 24 27 32 32 30 26 27 27 26 29 30 33 37 40 40 38 38 43
13 12 13 14 14 15 15 16 17 20 26 23 25 23 20 13 12 9 8 8 6 10 13 12 17 25 26 21 26 31 31 30 28 27 25 25 26 28 31 34 38 41 46 48
11 11 11 10 10 13 16 16 17 19 21 25 32 22 16 13 8 7 5 7 11 15 15 15 17 24 25 21 25 28 29 31 29 27 24 23 24 26 28 31 33 32 37 41
9 11 11 10 11 15 19 22 19 17 12 10 13 11 9 7 5 5 7 10 12 14 15 18 20 21 18 19 21 32 29 27 30 27 24 21 21 22 23 25 29 30 31 33
10 12 14 11 10 13 17 13 6 12 14 11 13 7 8 7 4 2 4 5 10 12 14 12 16 18 19 21 21 25 32 25 26 24 21 19 18 17 17 18 17 21 21 21
6 8 13 13 6 12 15 12 12 18 17 14 6 6 5 4 1 2 6 9 12 11 11 14 11 13 15 17 18 20 20 28 24 25 21 19 17 16 14 11 8 5 9 11

GFSNGP_850_spd_078.txt.gz
Wind_Speed
7 9 16 11 20 17 10 14 9 18 19 17 14 14 16 15 15 18 22 20 19 19 19 16 11 8 5 9 13 15 9 16 20 10 23 18 19 20 19 19 19 20 18 21
11 11 10 16 4 2 11 12 10 20 18 18 28 22 18 15 15 17 20 18 17 17 17 19 17 13 9 1 8 8 3 3 8 17 21 9 15 22 23 23 23 22 22 21
10 12 8 10 8 1 5 10 20 10 15 19 15 17 17 15 14 15 16 15 15 15 15 15 15 14 16 12 8 11 8 5 8 11 12 19 16 17 21 24 23 24 24 25
11 5 12 11 6 5 11 3 14 21 13 16 19 14 17 15 12 11 12 12 11 11 12 11 11 14 12 11 11 8 4 5 3 2 10 22 20 19 20 22 22 26 26 26
11 9 4 7 4 9 13 7 10 14 15 18 16 18 13 10 10 9 8 9 8 8 8 8 9 11 13 10 10 10 10 7 6 7 7 9 12 19 21 20 22 24 25 28
9 14 14 10 8 3 5 8 10 14 12 14 13 10 11 10 8 8 6 6 6 6 6 5 7 7 7 7 7 9 10 9 8 8 8 10 13 13 12 16 19 21 25 27
9 8 6 13 5 3 8 2 15 9 10 6 5 11 15 9 7 6 6 5 6 6 5 5 6 7 8 7 8 11 13 14 13 13 12 11 12 14 20 20 19 22 26 27
9 11 4 10 5 4 9 14 12 11 8 7 10 10 9 7 6 4 4 4 5 5 6 7 7 7 7 8 11 14 16 17 18 18 17 16 16 15 16 17 19 24 26 27
3 3 6 3 7 9 10 13 10 10 11 10 10 8 7 6 5 4 3 3 4 5 6 7 8 9 9 11 13 16 18 20 22 23 23 21 20 20 20 19 19 19 22 26
5 4 6 7 4 5 5 9 8 8 11 10 10 8 6 5 4 4 3 3 4 6 7 7 10 12 13 14 14 16 18 19 20 23 25 24 23 22 20 23 22 20 19 24
8 12 8 6 10 9 8 8 11 10 10 10 8 7 6 5 3 2 2 3 4 6 7 9 10 11 13 14 18 18 19 20 21 19 19 21 20 22 23 23 26 28 27 26
6 9 8 15 13 15 13 13 14 14 12 10 9 8 7 5 4 1 2 3 5 7 8 8 10 12 13 14 18 19 20 20 20 23 22 24 25 30 28 28 28 26 30 32
8 14 16 16 16 16 19 17 16 15 14 12 10 9 9 7 4 5 3 3 7 9 10 10 11 13 15 17 18 19 20 21 22 24 24 25 28 28 32 32 25 31 25 27
13 12 17 17 11 11 15 17 16 15 14 13 12 11 10 8 6 4 3 4 6 9 10 11 13 16 17 19 20 22 24 24 23 23 25 27 27 28 29 30 32 32 34 28
16 15 13 15 11 14 15 18 17 16 14 14 12 13 13 10 9 7 6 5 6 9 10 12 14 18 19 23 24 25 25 25 25 25 25 29 31 34 36 35 38 36 28 30
13 11 11 12 16 14 17 16 17 16 16 15 15 16 16 14 12 8 9 5 6 6 11 12 17 19 26 24 24 25 25 25 26 30 30 28 30 32 33 35 35 32 36 36
8 11 11 15 8 10 15 18 18 17 17 16 14 14 15 15 15 9 11 9 6 9 7 12 15 21 27 20 22 23 26 26 27 29 31 32 30 34 37 38 37 36 39 31
11 8 9 21 13 14 15 15 19 21 17 18 19 17 19 19 18 13 10 10 8 9 7 11 16 20 16 18 22 24 24 26 28 30 32 33 33 34 38 39 41 41 41 45
8 10 9 16 20 20 24 22 22 23 23 23 23 24 23 22 21 16 15 12 13 13 11 8 14 14 14 16 20 22 25 28 27 27 28 30 32 34 36 36 39 40 42 43
13 13 12 11 14 17 15 15 18 20 20 23 24 24 24 23 21 18 15 13 16 13 15 12 14 10 13 15 25 20 29 30 31 32 31 31 30 29 30 36 39 36 36 38
4 6 5 5 6 10 16 19 20 25 39 30 32 27 29 29 26 22 17 15 15 17 12 11 11 11 13 17 21 20 29 33 33 34 32 30 32 31 29 34 35 33 37 41
10 9 12 14 14 15 16 18 19 18 16 18 22 18 19 20 19 19 19 15 14 11 10 9 11 15 22 28 18 19 28 34 31 33 35 32 30 30 30 30 31 32 34 39
10 8 9 10 10 11 11 13 15 17 18 18 15 15 20 25 21 17 18 16 13 13 12 12 15 20 21 23 19 24 24 30 33 31 34 32 30 28 30 31 31 30 32 34
7 11 10 11 10 13 15 17 18 17 17 17 18 13 15 21 18 17 9 12 12 13 13 13 17 19 18 21 19 21 26 28 34 30 33 30 30 29 30 31 31 31 31 31
6 8 7 9 10 12 14 19 22 20 16 15 15 13 16 19 13 9 7 7 7 10 10 12 12 15 16 18 18 20 24 24 30 31 31 30 28 29 29 29 30 30 29 30
6 7 9 9 8 9 13 14 14 4 12 8 12 18 17 17 12 10 4 4 7 8 5 6 9 9 10 14 17 19 19 24 27 31 32 28 27 27 28 27 27 27 26 27
7 9 9 8 8 9 14 9 17 17 15 16 16 10 10 9 7 3 2 3 5 6 7 8 7 8 9 11 14 16 14 16 21 29 31 25 23 24 24 24 23 22 21 23

GFSNGP_850_spd_084.txt.gz
Wind_Speed
6 7 5 3 8 14 2 5 4 11 14 16 13 14 17 19 16 15 14 14 12 12 10 10 11 14 18 17 9 7 21 19 22 11 18 26 26 25 23 23 24 24 22 18
6 6 9 7 14 12 6 9 11 14 9 15 22 23 20 18 17 16 18 21 20 19 18 15 12 9 6 8 11 13 16 19 18 21 16 23 24 26 22 22 23 21 23 22
1 4 3 5 7 8 5 6 16 8 9 22 17 20 22 21 20 21 19 18 17 19 19 18 17 15 13 9 8 8 15 16 12 16 16 13 23 21 25 21 19 20 24 23
1 5 4 4 6 7 8 5 9 17 20 22 24 25 24 24 28 25 22 20 17 17 19 19 15 16 16 15 13 11 10 10 13 15 8 11 20 20 23 24 19 22 25 27
3 1 5 2 5 2 5 5 11 15 18 21 25 27 23 26 26 27 23 21 18 16 15 16 15 13 13 11 8 8 8 7 7 7 13 16 18 19 22 24 26 22 25 26
2 2 3 3 2 5 15 1 3 24 26 33 33 9 8 28 26 24 20 17 17 15 12 9 10 10 10 8 5 4 4 3 3 4 5 9 12 10 12 15 18 21 24 26
1 2 4 4 10 3 6 6 11 25 35 34 7 17 33 30 25 20 16 14 11 9 8 7 5 7 9 8 8 6 6 7 7 7 8 9 9 11 11 10 11 13 20 18
2 2 4 7 6 4 3 6 21 25 27 23 24 40 34 28 23 18 15 12 9 8 5 3 3 5 7 8 7 7 9 10 10 10 11 12 12 12 12 11 10 8 8 8
5 5 7 8 12 12 15 18 21 26 28 36 39 34 29 25 20 17 15 12 8 4 3 2 4 4 4 5 7 7 6 7 7 6 8 10 11 11 11 12 13 13 13 12
4 2 4 8 9 8 8 15 19 21 25 26 28 26 25 22 20 18 15 13 9 6 8 7 7 7 7 7 8 9 8 7 8 8 7 7 8 10 11 12 14 15 16 18
2 5 1 8 10 10 8 10 14 19 20 22 27 27 27 25 23 21 18 13 8 7 7 7 7 7 7 8 8 8 9 8 8 9 9 10 10 11 11 11 14 17 19 22
5 6 5 4 9 18 19 17 16 14 16 16 23 26 27 27 22 20 16 10 8 5 3 5 7 8 8 8 8 9 10 10 10 10 11 12 13 13 13 15 16 16 18 22
6 7 9 10 10 8 16 22 22 22 21 21 23 24 25 24 20 17 13 11 11 6 6 7 8 7 5 5 10 11 11 11 11 12 13 15 17 20 22 17 20 20 21 23
9 7 8 9 10 10 11 19 24 25 26 27 24 23 21 20 20 18 17 13 13 9 6 7 4 3 3 8 13 12 11 11 12 14 16 18 19 21 24 27 28 26 25 27
9 10 12 10 14 18 20 19 24 32 30 28 27 24 22 21 20 21 19 20 15 11 9 6 5 3 5 9 12 12 12 12 13 14 16 19 21 23 26 28 31 34 34 31
6 10 12 15 15 15 15 13 28 30 29 30 27 27 28 26 25 26 25 22 20 15 11 9 8 6 5 9 11 10 12 13 15 17 19 22 24 26 28 30 33 36 37 38
7 9 10 11 13 13 16 16 12 12 24 26 27 27 26 26 29 31 28 26 21 17 14 10 11 8 6 7 12 10 12 12 13 16 19 23 25 27 29 31 33 34 36 36
6 6 7 6 9 13 16 18 19 21 20 13 20 23 28 31 33 34 33 29 24 21 21 15 14 9 7 7 11 7 11 13 14 18 21 25 29 31 29 30 31 34 36 37
5 6 9 8 8 7 9 13 13 22 16 19 17 18 20 26 27 35 37 34 30 27 25 20 17 11 7 7 9 8 12 17 16 17 20 23 28 33 33 31 31 32 34 36
7 5 7 9 5 9 6 12 13 10 17 20 25 29 14 16 33 31 32 39 36 29 26 23 18 13 8 8 9 11 14 18 17 18 22 25 28 32 34 34 33 32 33 35
1 2 1 3 1 1 3 5 5 8 16 22 21 28 23 26 22 32 33 42 36 35 31 23 16 10 9 7 8 12 16 19 19 20 22 24 27 30 33 33 32 32 31 34
2 5 3 2 2 3 3 5 7 9 11 13 15 15 14 17 23 24 24 27 30 32 25 18 15 12 9 8 11 12 15 19 18 19 21 24 26 30 32 33 33 32 33 33
3 4 5 2 3 5 8 10 12 14 15 16 16 16 17 15 17 22 28 28 26 26 32 21 16 15 9 12 14 13 16 16 16 18 20 23 25 30 33 35 34 33 34 35
2 2 3 6 8 13 14 15 16 18 20 22 23 20 18 18 15 18 18 18 26 20 22 18 17 15 13 14 12 15 16 14 17 20 22 23 26 29 35 34 33 32 33 33
3 6 6 8 11 11 9 12 15 14 13 12 14 17 20 19 13 11 14 15 18 19 20 19 18 15 14 12 12 14 14 14 17 19 21 25 26 28 33 31 31 32 32 33
4 1 6 8 14 15 12 14 22 24 29 9 6 2 7 10 9 7 10 14 16 18 15 16 16 17 14 12 11 11 13 15 19 19 20 25 25 26 30 32 29 30 30 31
1 6 14 15 14 12 12 13 15 18 21 30 24 19 21 19 18 17 19 17 16 19 18 15 14 13 13 10 10 11 12 16 20 20 22 23 24 25 27 30 28 28 28 29

GFSNGP_850_spd_087.txt.gz
Wind_Speed
1 6 6 5 6 10 4 4 4 6 9 11 8 8 14 12 12 11 14 11 11 13 13 17 16 14 10 14 14 15 12 19 23 12 8 9 20 23 22 23 23 24 20 18
5 3 8 8 13 13 7 5 8 10 0 7 16 16 15 13 14 15 15 14 14 13 14 15 14 16 16 14 14 16 11 7 15 23 23 16 11 12 21 23 19 23 21 22
1 5 6 6 5 6 2 5 6 5 6 19 11 15 17 16 15 18 19 18 17 18 17 15 14 13 12 12 10 9 8 8 10 14 16 19 20 15 17 20 17 16 18 20
2 3 2 5 5 4 9 5 3 7 16 16 18 17 18 17 18 20 20 19 19 18 18 18 18 18 17 15 13 13 15 14 12 11 14 20 20 19 21 22 21 23 21 17
3 1 3 3 2 4 3 4 8 13 13 16 21 19 13 17 20 22 23 20 19 16 16 16 16 15 15 14 12 10 8 7 7 9 13 14 11 17 15 20 18 19 24 25
2 3 4 4 6 16 5 3 14 24 23 22 25 5 5 25 23 21 19 18 18 15 13 11 12 10 7 8 6 5 5 4 4 4 6 10 14 11 12 12 18 17 22 23
1 2 4 5 8 11 6 4 14 25 33 31 16 8 32 31 26 20 18 18 16 13 10 8 7 7 6 4 3 3 3 5 6 6 7 8 9 10 10 13 13 14 15 13
2 3 3 4 6 1 3 2 9 23 30 33 16 21 38 34 30 25 21 18 14 12 9 7 6 7 7 7 8 8 9 10 10 10 11 11 11 11 12 12 13 14 15 13
5 5 6 1 5 6 2 3 11 25 27 32 24 39 39 35 30 25 20 18 14 10 9 7 5 5 6 7 7 7 8 8 7 8 9 9 10 11 12 13 13 14 16 17
4 3 5 6 7 6 6 5 9 21 22 22 27 36 37 32 28 24 19 16 12 8 6 6 8 8 7 7 6 6 7 8 8 7 7 8 8 8 8 10 12 13 15 18
2 4 2 9 8 9 8 9 11 14 17 22 28 36 33 30 26 22 19 15 11 6 6 6 5 5 5 6 6 5 5 5 6 6 6 6 7 7 7 9 11 12 13 16
5 9 8 7 14 12 13 15 15 18 22 25 29 32 31 28 24 21 19 15 10 7 5 3 3 4 5 4 4 4 4 4 5 5 5 6 7 6 7 9 10 11 13 16
3 10 9 4 6 5 14 17 22 19 20 24 28 25 27 28 26 23 20 16 11 7 7 4 4 5 3 3 3 3 3 3 3 3 4 5 6 7 7 6 9 10 13 14
7 7 5 4 4 5 9 12 15 23 25 26 26 31 30 31 30 27 23 17 10 9 8 6 5 4 5 3 2 3 4 5 5 5 6 8 9 11 13 15 15 14 14 17
12 11 9 7 6 9 13 15 15 17 26 31 28 31 35 35 33 29 23 18 13 11 12 10 7 4 5 2 1 2 3 4 6 7 9 11 13 14 16 18 20 22 23 22
10 7 5 9 14 12 13 15 18 19 25 31 32 36 36 34 30 27 24 23 21 19 17 12 8 5 5 4 2 2 3 5 6 7 10 12 15 18 20 23 25 27 29 31
8 7 8 12 12 10 11 11 11 13 15 24 33 38 34 31 31 28 27 27 25 22 17 13 8 8 6 7 5 5 5 6 7 9 12 14 17 20 23 26 29 31 32 33
10 8 8 7 6 7 9 10 12 13 15 19 19 25 27 37 33 33 32 32 31 29 26 19 15 12 9 8 6 4 4 5 7 8 11 14 17 20 23 26 29 32 33 33
10 7 8 7 7 9 12 13 14 14 16 18 23 26 28 22 29 34 37 39 38 36 30 26 22 19 14 10 8 5 5 6 8 9 11 15 18 21 24 25 29 32 34 36
9 8 6 6 9 10 11 10 9 12 15 15 23 21 21 19 10 19 27 38 39 37 36 31 28 24 17 13 9 6 5 5 8 11 12 14 17 20 24 25 27 30 32 33
5 4 4 4 4 7 9 9 9 9 9 13 18 18 18 23 23 23 18 24 27 35 45 32 31 28 18 15 12 8 6 7 10 12 13 14 16 18 21 25 28 29 30 31
5 2 1 3 4 7 7 9 10 13 16 17 17 18 18 17 19 25 26 33 22 28 36 39 31 29 17 15 13 9 9 10 11 11 12 13 16 18 21 24 29 30 31 32
2 2 3 4 5 7 10 14 17 20 21 21 21 21 21 22 21 19 20 20 24 21 25 34 27 28 22 18 14 11 13 14 13 12 13 16 18 19 22 25 28 33 31 31
1 2 4 7 9 12 16 12 12 14 18 20 23 26 27 22 23 20 17 16 17 24 28 28 27 29 19 14 14 11 13 14 13 12 14 16 18 21 23 25 28 31 30 28
3 5 5 8 9 7 11 12 16 26 27 15 9 9 15 23 23 17 12 12 12 14 18 18 17 18 16 14 12 13 13 13 12 12 15 17 17 20 23 25 27 30 30 26
8 6 4 7 9 9 10 14 17 22 26 16 15 10 5 8 16 13 8 7 9 17 17 16 17 16 16 15 13 13 13 11 12 13 16 17 18 19 22 24 27 28 28 26
5 5 10 10 10 7 7 9 11 13 17 20 20 21 13 14 10 11 14 16 18 15 12 12 13 13 14 16 16 16 16 15 16 17 18 19 20 19 21 23 25 25 25 26

GFSNGP_850_spd_093.txt.gz
Wind_Speed
11 11 11 12 8 5 5 3 5 1 4 1 12 11 12 11 8 7 7 8 10 11 12 12 16 19 25 24 24 21 15 14 14 20 17 13 12 12 12 12 13 12 12 14
2 2 3 10 10 10 8 4 2 2 3 1 13 12 11 11 10 9 8 8 9 12 12 13 16 17 15 20 20 16 13 13 14 18 19 12 9 8 10 12 13 11 9 11
3 4 2 3 5 7 5 3 1 2 3 10 12 12 14 14 13 11 11 12 11 13 14 13 16 19 20 21 21 19 18 16 16 16 17 19 18 9 7 5 6 7 8 7
3 3 7 4 3 2 5 3 1 1 4 12 14 11 10 10 12 12 11 12 12 13 14 14 14 13 14 16 17 17 16 13 11 9 10 12 13 15 18 14 10 8 7 9
3 3 2 6 4 2 2 2 2 3 10 15 15 12 7 10 11 13 13 13 13 13 14 15 15 15 15 16 16 16 13 11 9 8 7 9 10 11 11 11 9 9 13 13
2 3 4 4 1 6 4 4 4 7 12 17 18 8 6 16 15 14 15 16 16 16 16 14 15 13 11 12 11 11 11 9 7 5 5 6 7 6 5 5 6 7 6 9
3 2 1 1 5 3 4 3 1 7 10 14 7 4 7 18 17 17 18 19 18 17 16 15 14 11 8 9 7 7 6 5 4 3 3 4 5 5 6 7 6 6 6 7
2 2 5 4 1 2 3 4 3 7 10 12 4 2 16 19 21 21 21 20 19 18 16 13 11 7 5 4 3 3 3 3 4 5 5 5 5 6 6 6 7 8 9 9
4 1 1 2 3 3 4 5 6 4 9 12 9 8 16 18 22 22 20 20 17 13 11 9 7 5 4 3 3 4 4 5 6 6 6 7 7 7 8 9 9 10 11 11
3 4 5 3 2 3 3 6 7 5 6 12 13 12 18 20 22 22 20 18 15 12 9 7 6 4 5 6 6 6 6 7 8 8 8 7 7 7 7 7 8 9 10 10
3 5 4 8 7 4 2 2 5 6 2 8 13 16 19 23 23 22 20 18 14 10 8 6 6 6 6 6 6 6 6 7 7 7 7 7 7 7 7 7 7 7 7 8
4 8 8 3 8 9 6 3 1 2 1 4 10 13 19 23 23 23 21 19 16 12 10 8 8 8 7 7 6 6 6 6 7 7 7 7 6 5 5 6 7 7 7 7
3 7 11 6 6 8 9 6 5 6 6 5 7 11 16 23 25 26 25 21 17 13 13 12 10 9 8 8 7 6 7 6 6 6 5 5 5 4 2 1 2 4 6 6
9 6 6 8 5 6 5 3 2 4 9 12 12 13 14 18 21 27 26 21 22 19 15 12 11 10 9 8 7 6 6 6 5 5 5 5 6 6 5 4 2 1 2 4
12 11 4 9 8 6 3 2 4 5 7 8 12 18 20 20 22 24 24 28 26 22 18 14 14 12 10 10 8 7 7 7 7 6 6 5 4 4 3 3 2 2 3 5
11 14 10 7 7 4 4 5 4 3 4 6 9 12 16 21 25 28 32 34 30 28 25 20 17 15 12 12 11 10 9 8 7 6 4 3 3 3 2 2 3 4 6 8
11 11 11 8 4 2 2 3 3 4 5 6 7 8 10 14 21 25 32 35 35 33 30 23 18 19 15 14 12 12 11 10 9 7 5 4 3 2 2 3 4 5 7 9
11 10 9 5 4 3 2 2 4 6 7 7 8 9 9 11 13 15 21 27 35 36 35 27 23 23 20 18 17 16 13 12 10 9 7 5 3 0 2 4 6 7 8 11
13 10 7 6 5 3 3 4 6 7 8 5 6 8 9 9 12 14 17 21 27 35 40 29 30 30 27 23 21 19 16 15 13 10 9 7 5 3 3 4 6 8 10 12
12 11 9 8 7 6 5 6 8 8 8 9 9 12 12 11 14 12 14 21 24 25 34 36 31 35 33 31 26 24 20 17 14 11 9 7 6 5 5 6 7 8 10 13
11 10 8 5 3 2 1 2 4 6 9 12 13 16 17 17 17 14 17 17 18 23 34 31 37 32 32 36 34 27 24 21 17 14 11 8 6 4 5 5 7 10 11 14
10 6 5 4 2 1 3 6 9 12 15 18 20 22 24 25 22 21 21 20 15 13 13 22 41 40 35 33 40 33 29 25 20 16 12 10 8 7 7 8 10 11 14 16
7 6 5 4 2 1 4 5 7 10 12 13 13 15 16 19 20 22 23 17 18 22 18 15 13 11 19 28 34 40 34 28 22 17 13 11 9 9 9 10 11 14 16 18
8 7 4 1 3 3 6 7 10 14 15 15 14 15 15 14 13 13 19 20 15 15 17 14 17 20 22 23 27 39 39 30 24 20 17 13 12 10 9 10 13 16 18 19
7 4 1 2 7 10 9 10 9 11 15 16 18 22 18 14 10 7 5 11 11 12 13 15 15 14 22 21 23 30 31 30 24 17 16 14 13 12 11 14 16 17 18 19
5 3 0 8 9 6 4 6 6 7 11 12 15 20 20 22 13 6 2 1 5 9 11 8 9 10 17 23 20 29 25 21 19 14 12 12 13 13 15 16 18 18 17 17
7 4 7 9 9 3 2 4 8 4 8 10 12 13 14 16 17 18 10 7 7 5 3 6 13 14 16 18 18 16 18 14 13 12 12 12 14 15 17 18 19 18 16 15

GFSNGP_850_spd_096.txt.gz
Wind_Speed
6 8 7 8 12 14 16 16 10 8 10 7 10 10 13 12 11 9 8 8 9 11 13 14 16 18 21 26 29 23 15 18 18 17 19 24 17 14 12 12 10 11 12 11
8 5 7 9 5 4 3 5 5 5 4 3 10 11 13 13 10 9 8 7 8 11 13 13 15 17 19 20 20 18 17 18 19 15 15 16 19 15 13 13 11 10 9 11
9 3 4 8 6 5 5 2 3 10 8 6 10 10 11 12 12 10 10 8 8 11 11 11 13 13 13 16 17 17 17 16 14 15 15 16 15 14 9 7 9 11 9 6
7 3 9 7 4 4 8 6 5 2 3 6 10 11 10 9 11 11 10 10 8 11 12 11 13 16 16 15 19 20 17 17 16 15 15 17 15 16 14 13 10 9 9 11
4 13 5 6 4 1 3 6 5 5 5 10 13 12 8 9 10 11 11 10 9 9 11 13 14 14 13 15 17 20 21 17 12 11 11 12 13 14 16 17 17 14 11 15
4 6 8 11 5 2 2 5 4 4 8 11 13 9 8 13 13 13 13 13 12 11 12 13 13 13 14 16 16 17 16 15 13 11 11 10 10 11 11 11 12 9 12 12
7 5 2 5 2 1 7 5 4 2 6 9 5 7 8 14 13 13 14 14 14 14 16 16 15 12 10 10 9 8 8 8 8 8 7 8 9 11 11 11 10 12 12 12
2 4 4 3 4 4 5 6 6 2 4 6 5 6 14 15 15 14 15 15 16 17 16 15 14 11 10 8 8 6 6 5 5 6 7 7 8 8 9 10 11 11 12 11
3 3 5 5 9 7 5 6 7 4 3 6 6 9 13 15 16 15 15 15 13 12 12 11 8 6 5 5 5 5 5 5 6 7 7 7 7 8 8 9 9 10 7 6
3 8 6 5 5 5 4 4 5 5 3 8 9 11 14 16 16 17 16 15 14 13 10 9 8 7 5 3 4 4 5 5 5 6 7 6 4 5 4 4 5 6 6 6
6 3 4 7 5 5 3 3 4 4 4 6 8 11 13 16 17 17 17 15 14 13 11 9 7 5 4 4 4 4 4 5 4 4 5 6 8 7 6 11 10 6 7 6
3 4 7 1 7 8 5 4 3 4 4 3 6 8 12 14 16 17 18 17 15 13 13 11 9 7 6 5 5 5 5 5 5 5 4 6 5 7 10 10 10 11 11 10
8 5 6 3 5 6 6 5 4 3 2 2 3 5 9 11 14 17 16 18 18 17 14 12 10 8 7 7 7 8 7 8 7 7 6 6 7 6 4 6 6 6 6 5
7 6 6 8 6 6 6 5 3 2 3 4 4 5 7 9 12 15 18 19 17 17 16 15 13 11 10 9 10 9 9 11 7 7 7 7 6 6 6 5 3 3 3 3
10 9 3 8 9 9 7 5 3 3 4 4 4 7 8 10 13 15 16 18 18 18 18 18 16 13 11 10 10 10 8 8 8 8 8 9 7 6 5 5 4 3 2 3
10 9 9 10 10 9 6 3 3 4 4 5 6 8 8 9 12 15 15 17 21 24 24 23 20 16 14 13 12 11 11 14 12 9 8 7 7 7 6 5 5 4 3 2
11 14 12 10 10 7 4 3 2 2 2 2 3 4 6 8 11 14 16 18 21 24 22 22 20 19 16 15 14 13 13 14 13 10 9 8 8 8 7 6 5 4 3 5
8 9 12 11 9 6 5 5 3 3 4 4 5 6 8 9 10 11 11 14 19 22 23 23 23 22 20 19 17 16 15 14 14 12 11 11 9 8 7 6 5 4 3 6
10 13 12 10 8 6 5 4 3 3 4 5 7 8 9 10 11 11 11 13 16 19 21 23 26 28 25 25 21 18 17 16 15 14 12 13 12 9 8 7 6 5 4 3
13 12 11 10 8 6 5 2 2 4 4 5 7 10 12 14 15 15 14 15 14 16 14 18 26 27 27 26 28 21 20 19 18 16 15 13 11 11 10 11 9 7 6 5
13 12 11 10 8 5 4 2 1 2 5 7 9 12 14 16 17 19 19 18 17 14 12 16 20 24 27 27 32 28 24 21 21 19 17 16 14 13 11 10 9 8 8 8
13 12 11 9 7 5 2 1 2 4 6 7 9 11 13 15 16 18 20 22 19 17 14 13 14 18 26 32 33 32 32 26 24 21 18 16 15 13 12 11 10 10 9 9
11 10 8 7 6 5 3 1 2 3 5 6 8 10 12 13 14 13 16 16 17 19 18 16 14 12 13 24 37 40 33 40 35 27 21 19 17 14 12 12 11 10 10 10
11 10 9 6 4 5 5 4 4 5 6 7 10 10 11 15 15 12 11 13 20 15 16 15 16 14 14 14 19 26 27 39 37 29 25 22 14 12 13 12 12 10 10 12
11 10 7 6 8 8 6 4 1 2 4 6 8 11 12 16 14 12 8 8 11 14 12 14 17 16 18 20 24 19 22 25 36 39 34 22 20 14 13 14 13 13 12 12
11 7 5 9 9 8 5 2 2 1 3 5 7 8 10 11 15 11 6 6 2 3 7 9 12 13 15 17 17 26 30 34 37 36 26 16 13 15 15 14 14 14 14 13
10 9 8 10 10 7 5 4 2 3 4 5 5 7 8 8 10 13 11 9 11 7 3 3 3 7 11 15 15 15 17 23 18 18 15 14 15 16 15 15 14 14 14 14

GFSNGP_850_spd_102.txt.gz
Wind_Speed
17 7 16 19 16 16 17 18 11 2 17 17 12 15 13 12 13 14 11 11 14 13 21 17 16 15 20 21 25 30 23 17 15 15 17 16 16 21 18 18 16 16 13 13
16 10 17 19 21 17 22 15 13 15 6 10 25 22 19 16 10 11 13 12 11 12 16 19 20 14 13 17 16 16 18 17 15 17 19 16 13 17 18 19 18 18 15 17
11 17 14 15 15 15 12 11 10 15 6 11 9 15 9 18 18 15 15 11 9 9 13 18 18 17 17 17 15 14 15 16 13 9 10 11 10 8 12 12 13 14 14 15
6 10 8 10 13 8 16 6 20 14 21 16 13 22 19 13 21 17 18 14 11 12 13 14 14 17 16 18 17 18 18 18 15 13 13 10 10 8 8 8 11 11 14 16
3 3 9 6 11 13 7 13 18 11 9 28 33 16 15 14 17 19 16 15 13 11 12 13 12 14 17 17 16 18 15 15 14 14 11 9 9 9 9 9 8 8 9 12
4 2 4 6 13 31 5 6 15 19 8 16 10 8 12 17 19 19 17 14 9 11 12 11 11 11 12 13 11 14 18 18 18 13 14 12 11 12 12 10 6 8 13 15
2 4 5 4 9 24 8 3 6 12 15 22 13 16 21 24 24 20 17 12 9 13 13 12 12 12 12 11 12 12 11 11 12 14 13 11 11 10 10 9 10 10 15 16
6 9 6 7 12 2 6 2 10 9 13 14 12 12 17 17 20 17 14 12 10 13 12 12 11 10 11 11 10 8 8 7 8 9 10 10 9 8 8 10 11 11 11 8
7 3 8 9 9 8 8 5 7 7 5 10 7 8 12 13 13 13 12 12 12 12 13 13 12 11 12 13 11 12 10 9 7 5 5 5 5 5 4 6 9 7 5 5
3 12 11 8 5 5 6 6 3 3 3 3 7 6 8 11 11 11 12 12 12 13 12 14 12 10 10 10 9 8 7 6 6 5 5 5 8 8 6 4 4 4 7 9
3 8 6 5 5 6 5 2 1 2 3 3 6 7 9 10 10 11 10 12 12 11 11 10 11 11 10 8 6 5 5 4 5 5 7 9 9 10 14 14 12 12 12 12
1 7 9 2 10 4 5 3 2 2 2 2 1 3 5 9 11 10 12 11 10 10 10 10 9 7 8 8 6 4 3 4 5 4 0 4 7 10 16 14 12 20 18 18
2 3 4 2 6 6 6 5 5 3 4 2 2 2 5 7 8 10 11 11 11 11 11 12 11 11 10 7 6 8 10 8 7 8 8 8 9 9 8 6 6 13 17 19
5 2 3 7 6 6 5 5 5 2 5 3 3 2 2 4 8 10 11 11 13 13 12 13 13 13 12 10 8 7 8 11 11 8 9 9 10 9 10 12 9 5 6 8
6 7 7 7 8 8 7 6 6 8 6 4 3 2 2 3 4 8 9 11 11 13 13 14 14 14 14 13 11 9 8 8 10 10 9 11 11 10 9 9 6 8 6 4
8 8 9 7 11 9 8 7 5 5 4 2 2 2 2 2 3 7 8 8 13 16 19 20 20 18 19 18 17 13 11 12 13 9 11 14 10 10 9 9 9 9 6 4
9 11 9 9 12 11 7 5 4 2 4 2 1 1 2 3 5 8 10 10 11 9 13 15 25 23 25 24 21 15 13 13 14 14 12 12 10 11 11 11 10 10 11 14
6 7 6 5 16 13 9 7 5 3 3 4 3 2 4 6 8 9 10 12 14 15 13 15 21 21 25 31 24 21 17 17 18 18 16 16 14 14 13 13 12 11 13 12
9 9 11 9 12 12 9 8 6 5 1 2 2 4 6 8 10 10 9 12 16 19 20 19 18 19 23 25 26 25 20 20 21 18 17 18 18 17 15 15 14 13 12 11
8 7 13 13 12 11 10 9 5 2 1 0 3 6 8 9 12 12 12 14 15 19 21 20 24 24 23 22 26 27 23 24 23 20 17 19 20 19 19 17 16 15 15 14
11 17 18 14 10 9 6 4 2 3 2 3 4 5 7 8 9 11 14 15 15 16 19 17 17 17 19 20 24 30 33 25 21 23 21 20 21 19 18 18 18 16 13 14
15 16 15 11 9 8 6 4 4 3 2 2 2 3 6 7 7 10 12 15 15 18 19 17 17 21 22 19 19 25 27 33 29 21 18 22 24 21 20 19 19 17 16 15
14 14 13 12 11 10 7 6 4 3 3 1 1 4 5 4 7 11 14 15 20 19 23 21 19 16 19 20 23 18 21 23 28 31 24 21 22 26 19 20 18 18 17 16
15 14 12 11 10 9 8 6 7 5 3 3 2 5 6 7 10 11 15 19 18 18 18 18 17 18 17 17 14 16 18 16 21 26 32 35 31 23 23 17 16 16 17 16
14 13 12 11 10 10 9 8 8 7 6 6 5 4 5 4 7 9 11 14 19 18 14 13 11 12 13 15 15 15 15 14 17 14 24 29 31 35 33 24 21 19 17 14
14 14 13 12 10 11 10 10 7 8 4 4 5 5 7 7 4 8 9 13 13 19 13 12 8 6 8 10 13 15 17 18 16 16 15 18 23 33 34 33 23 17 16 15
15 14 13 11 12 11 9 10 7 6 4 5 3 6 7 8 7 8 6 4 8 12 10 11 11 11 7 10 15 15 14 16 14 14 16 17 15 19 30 33 29 23 15 13

GFSNGP_850_spd_105.txt.gz
Wind_Speed
6 10 8 13 13 8 8 8 2 6 7 7 4 8 18 17 19 23 24 23 33 38 38 31 32 33 35 32 36 34 23 19 15 13 17 16 14 11 12 14 14 14 11 12
6 13 13 6 10 13 11 10 12 20 7 3 14 23 17 9 9 12 15 20 24 30 32 28 25 20 22 29 30 25 21 19 18 11 10 12 11 12 12 12 19 17 15 14
1 11 11 6 12 16 7 23 2 6 10 14 5 14 18 19 12 13 19 17 17 18 29 29 26 25 25 21 16 11 13 17 13 11 10 11 12 9 5 6 8 14 14 13
2 7 2 4 9 12 11 17 19 12 11 15 21 25 18 15 21 18 13 14 13 14 16 22 20 21 18 20 17 14 13 15 14 13 13 9 7 5 4 4 7 9 12 15
3 1 5 4 7 9 9 6 16 13 9 14 20 16 12 24 17 14 12 11 10 12 13 13 15 16 15 17 17 21 20 16 16 13 10 8 8 6 5 7 8 8 11 11
3 4 2 6 11 17 16 5 12 11 17 22 6 9 8 26 21 18 13 8 4 8 12 11 12 11 13 14 15 16 17 16 13 14 11 9 7 6 6 8 11 10 10 7
4 2 4 7 11 18 4 3 7 13 13 22 15 4 29 25 21 14 11 5 7 11 11 11 9 10 10 10 10 10 12 15 16 16 13 11 10 9 7 8 10 9 8 10
4 2 2 4 10 3 5 8 9 25 14 19 24 21 22 20 17 13 8 7 11 10 10 10 10 10 9 9 9 10 10 9 9 8 9 10 9 9 8 9 10 9 7 7
6 6 12 7 5 2 12 14 11 15 22 28 23 28 23 20 14 12 11 13 13 13 13 11 9 7 7 9 9 9 9 8 8 8 8 9 10 10 9 10 10 9 8 5
5 3 8 6 8 15 14 11 11 10 17 16 21 26 26 21 20 13 11 11 6 10 12 12 11 11 9 10 11 9 8 8 8 8 8 9 9 9 9 8 9 9 8 7
4 9 12 9 9 7 8 8 8 7 12 16 14 22 26 20 15 11 10 6 3 5 7 9 9 10 11 10 9 9 8 7 7 7 7 7 7 8 8 7 7 8 9 12
3 16 10 15 13 12 10 3 6 7 7 12 15 11 11 13 11 11 9 10 9 4 2 5 8 9 9 8 6 5 5 4 4 5 2 4 6 7 8 10 10 13 14 13
8 11 11 11 13 10 8 6 7 7 8 6 11 12 8 10 6 9 4 8 8 7 8 5 6 9 9 8 8 7 6 4 4 4 5 4 5 7 7 5 5 7 12 18
11 13 10 14 14 10 7 11 11 7 8 8 4 10 4 5 7 3 3 7 10 10 12 10 11 11 10 10 8 8 9 11 11 9 8 7 11 10 10 9 9 9 8 8
7 6 5 6 11 10 8 11 7 4 6 7 6 7 8 5 2 1 2 5 10 14 13 12 13 13 14 14 13 13 12 12 13 15 13 14 12 12 13 12 11 10 7 9
6 5 6 4 12 15 11 8 4 6 11 10 10 8 6 6 7 9 5 2 9 14 15 17 18 19 20 19 18 17 16 13 14 11 17 17 17 18 16 14 13 10 9 6
10 8 8 3 18 17 15 12 8 12 11 9 7 4 4 6 5 6 7 6 5 5 3 7 15 21 22 24 24 23 18 19 18 17 16 16 16 14 16 14 14 12 12 11
6 11 9 12 18 16 14 13 12 10 9 9 8 6 3 2 5 7 9 10 12 10 8 9 12 13 14 21 25 29 24 20 18 18 18 19 19 13 13 15 13 15 17 15
12 12 11 15 18 18 18 13 8 10 10 7 7 6 3 2 6 9 11 13 14 16 18 19 19 18 19 18 18 21 31 26 24 25 22 20 21 18 17 17 18 18 15 14
14 15 16 19 19 17 16 16 15 13 12 10 8 7 6 8 10 12 15 15 13 13 15 17 18 19 20 20 23 22 22 25 29 24 29 25 24 21 21 20 17 17 19 16
14 19 22 21 20 20 18 13 11 8 6 4 3 1 3 7 7 6 10 13 12 17 20 23 22 19 13 18 19 19 21 24 28 20 25 26 19 21 21 18 21 18 20 19
23 27 27 23 22 16 13 11 11 8 5 4 5 5 5 3 2 4 10 7 12 21 26 23 22 22 21 17 19 22 22 22 25 31 25 19 22 23 18 20 17 21 22 17
29 26 21 18 17 16 13 7 5 5 6 6 5 2 7 5 1 3 9 18 19 19 19 19 17 17 21 20 17 22 21 20 21 22 26 25 21 23 27 21 20 21 22 22
23 20 17 12 11 12 11 9 9 10 8 6 8 4 3 2 2 7 10 14 17 19 19 15 17 15 14 15 16 14 19 14 14 16 15 17 27 28 29 28 24 16 13 18
21 20 17 14 16 15 14 13 11 8 6 8 8 4 5 8 4 6 9 11 15 22 19 15 15 12 10 10 11 13 15 15 17 17 15 11 17 26 29 29 28 27 18 18
21 21 20 20 17 14 15 13 16 16 11 8 8 6 3 7 8 6 8 9 13 16 18 18 17 13 10 10 10 12 12 15 15 14 15 15 13 14 21 23 29 31 33 22
22 17 16 16 16 14 18 14 10 12 16 8 8 7 8 5 10 8 10 10 9 11 14 15 14 15 19 21 21 9 12 13 14 15 15 13 13 13 11 13 21 28 32 35

GFSNGP_850_spd_108.txt.gz
Wind_Speed
2 4 5 10 15 15 6 4 5 5 6 6 9 10 13 21 15 19 26 23 31 28 31 34 33 29 35 36 32 28 30 27 22 20 16 18 21 19 15 16 18 18 16 15
5 7 8 5 19 14 10 13 4 5 2 3 20 25 21 25 25 21 21 33 34 35 33 29 30 24 28 32 27 30 31 31 24 19 14 16 19 17 15 15 17 18 19 17
1 5 4 7 10 11 1 11 6 4 3 7 6 12 16 17 24 26 25 24 25 29 31 31 31 22 30 34 29 37 34 22 22 17 16 16 17 15 13 13 14 17 20 19
1 5 4 5 4 0 6 10 11 8 7 5 12 13 15 17 19 19 21 20 20 19 25 30 33 20 35 43 29 25 20 23 22 19 17 14 11 11 11 10 9 9 11 12
3 1 1 3 3 2 4 5 8 7 10 13 17 26 21 16 18 13 10 8 9 13 18 23 20 29 28 29 23 19 18 18 18 17 16 13 12 11 9 9 8 8 9 11
2 4 5 6 4 7 1 2 3 6 13 19 16 8 4 17 16 16 12 7 4 8 11 11 13 16 19 24 21 18 17 16 19 14 16 12 10 9 9 9 8 8 8 8
1 1 4 5 4 12 4 3 11 9 18 28 16 15 10 10 15 11 8 4 4 8 8 8 12 13 14 13 15 15 17 17 19 13 14 14 11 11 10 10 11 11 11 10
2 1 1 10 3 6 3 7 18 15 18 23 23 15 4 4 8 7 5 8 8 9 10 9 8 8 9 10 11 13 13 13 15 16 16 14 12 10 11 11 11 11 10 9
8 5 5 5 9 15 16 18 13 17 20 27 28 24 23 15 9 9 9 9 8 7 8 10 11 9 9 9 9 10 11 12 11 11 11 12 13 13 12 12 11 10 9 10
3 3 4 8 25 19 21 24 20 16 24 24 25 24 22 18 9 8 9 10 5 5 7 7 8 8 7 7 7 8 8 8 8 8 8 9 10 10 10 12 13 13 12 12
2 2 1 10 16 14 16 16 20 25 14 16 21 21 21 15 10 6 7 7 8 4 4 5 6 6 7 7 7 7 7 6 5 5 5 6 6 6 7 7 8 8 9 10
5 11 5 15 14 9 9 10 12 13 18 17 15 17 19 21 17 11 8 5 6 5 3 1 3 6 6 5 4 3 3 3 3 3 5 6 7 7 7 8 9 9 10 11
7 15 13 18 18 16 16 12 9 8 12 17 15 14 15 19 12 5 5 2 1 3 4 4 2 2 4 5 5 4 4 4 3 4 4 4 4 3 4 5 5 6 8 10
22 20 17 21 19 16 14 16 14 15 12 16 17 14 15 12 12 9 3 3 4 4 3 5 3 3 4 6 7 7 8 9 8 9 9 11 11 10 9 8 8 9 9 8
17 13 17 18 17 16 19 20 17 18 18 18 19 18 15 13 9 5 6 6 8 7 8 9 10 11 9 8 11 11 13 13 14 16 15 14 15 14 13 12 12 12 11 10
16 14 12 19 19 21 19 14 13 20 21 22 23 20 19 18 15 12 6 5 6 6 10 13 15 12 14 15 16 16 14 13 16 18 17 19 18 16 17 19 18 15 11 9
19 15 12 13 27 26 23 20 22 22 20 17 14 12 10 9 7 6 6 4 3 3 3 2 4 8 14 19 21 21 21 19 16 19 20 18 20 19 18 21 21 18 13 10
15 15 14 20 27 25 24 21 23 22 18 15 11 7 4 1 1 0 1 2 2 2 3 5 7 9 10 11 13 17 20 24 25 25 22 23 22 21 18 16 18 17 14 14
14 17 17 21 25 25 24 23 20 17 16 13 10 8 5 3 4 6 10 12 14 14 13 14 15 18 20 19 14 15 16 22 24 26 25 25 22 23 25 19 17 18 16 16
17 16 18 23 24 25 24 22 21 19 16 12 9 8 5 4 6 10 12 10 10 12 14 17 19 19 19 17 16 16 18 19 22 26 28 32 33 28 27 25 21 20 20 19
23 22 25 26 26 24 22 21 19 18 16 12 9 6 4 4 3 6 9 11 13 16 19 23 23 21 20 21 20 18 15 19 19 21 25 29 30 28 28 29 25 24 22 19
29 31 30 29 27 25 22 20 18 16 12 7 3 3 2 5 8 4 5 7 15 16 17 18 16 17 18 17 20 19 19 20 22 23 24 24 28 33 29 27 25 24 23 23
29 31 31 30 29 26 22 17 13 8 6 6 4 6 11 12 6 3 3 8 14 17 19 16 14 15 16 14 13 15 16 18 19 19 21 22 22 27 32 27 27 24 22 23
28 31 29 26 26 23 19 15 9 4 4 5 12 14 12 10 9 6 6 9 11 17 20 17 16 13 12 13 13 14 15 16 15 16 14 13 17 23 25 26 25 22 15 19
31 30 26 24 21 19 15 14 10 7 10 14 13 13 11 8 10 8 4 10 11 14 14 15 17 17 15 15 15 13 11 12 12 13 15 14 11 11 22 30 30 28 29 27
31 28 26 24 22 18 16 13 10 11 15 14 12 10 9 9 12 12 9 7 9 9 8 9 13 15 17 22 24 23 11 11 10 12 14 15 13 12 11 16 23 25 26 24
24 24 23 24 20 17 15 10 11 15 19 13 9 10 12 9 6 11 12 9 8 9 7 7 11 15 14 17 20 21 20 11 9 13 15 15 15 12 9 10 12 14 17 18

GFSNGP_850_spd_111.txt.gz
Wind_Speed
4 1 6 0 5 9 6 3 5 4 6 5 2 7 13 23 27 28 33 41 40 31 25 27 28 26 28 22 20 25 24 23 23 23 26 21 20 22 21 22 18 15 14 16
2 2 8 3 10 6 6 6 5 6 5 5 9 5 13 21 26 30 33 36 39 28 31 36 32 28 29 24 21 28 22 19 26 21 22 19 21 24 22 18 13 13 17 17
4 6 8 4 5 6 1 5 4 5 2 6 7 12 16 14 13 13 17 23 27 32 34 28 28 26 21 19 21 26 27 21 23 25 23 20 20 20 20 18 19 18 19 18
2 4 5 4 2 4 2 2 6 5 5 7 9 18 21 14 10 11 12 12 16 19 20 20 20 15 22 21 23 20 19 19 26 26 24 21 20 18 18 17 15 13 12 12
3 1 5 3 3 1 2 3 3 3 7 11 19 26 23 16 12 11 8 7 8 8 15 21 29 22 20 19 17 14 17 19 22 26 23 21 17 14 14 12 11 10 10 10
2 3 6 5 1 3 5 3 2 7 9 11 9 7 3 10 11 10 8 7 4 3 6 8 7 21 27 25 28 28 23 27 24 21 19 14 14 14 10 8 7 9 9 8
2 2 6 6 7 2 3 5 9 11 17 16 8 11 18 10 7 7 6 7 8 7 6 6 5 7 8 15 19 27 30 24 20 21 18 16 13 11 11 11 10 11 10 9
2 1 3 1 1 4 5 7 17 14 22 35 30 25 21 16 7 6 7 10 10 9 7 7 6 6 8 13 14 15 18 21 23 20 12 11 13 12 11 10 10 12 11 9
6 5 6 4 3 3 12 14 14 20 25 25 26 24 13 15 12 10 8 10 12 9 8 7 8 8 7 6 5 6 6 8 10 11 14 15 15 13 10 10 11 10 10 9
2 2 2 18 17 14 11 12 14 17 22 21 22 19 19 14 14 13 13 10 9 11 7 7 6 6 6 5 6 7 6 5 6 6 6 6 6 8 9 10 12 11 11 10
1 2 8 8 14 21 19 16 18 19 18 16 15 18 17 15 16 14 16 16 14 11 7 6 6 6 7 6 6 6 5 5 4 3 3 3 3 4 5 7 9 10 10 10
5 17 7 19 23 23 20 19 15 15 15 13 16 19 18 17 15 12 13 13 13 15 12 8 6 5 5 5 5 4 4 4 5 4 4 4 4 5 4 5 7 8 9 9
6 18 8 22 18 18 19 17 13 12 12 17 15 17 15 12 11 11 11 11 10 9 9 11 9 6 4 4 4 2 2 2 2 2 2 2 2 2 3 4 4 5 7 8
12 18 13 22 21 17 17 21 14 13 12 15 15 16 12 12 11 9 6 6 6 7 7 6 6 7 6 4 4 5 6 7 8 8 7 7 6 7 8 8 7 6 8 8
18 17 18 20 19 20 21 21 19 19 17 16 13 14 12 12 8 6 3 2 1 2 1 2 3 3 4 6 7 8 8 9 10 11 12 13 14 13 12 12 12 11 11 11
17 15 19 23 22 25 25 21 23 25 20 20 17 15 12 9 7 5 5 4 4 5 6 7 8 9 9 10 11 12 12 13 14 13 14 16 17 17 16 14 14 15 15 14
21 17 21 26 30 30 26 22 21 23 25 23 21 20 18 15 11 7 4 1 0 1 1 4 7 10 11 12 15 15 15 17 18 18 18 17 18 20 19 19 17 18 17 14
19 17 18 24 30 29 26 23 22 23 24 22 21 18 14 11 8 6 3 2 2 3 4 6 8 10 11 13 15 17 17 16 18 19 20 21 24 23 22 20 20 20 17 15
23 19 18 18 31 30 26 27 28 28 25 21 18 15 12 10 8 7 4 3 6 7 9 11 13 15 18 19 20 20 19 21 18 19 21 23 24 24 25 23 23 22 18 17
20 22 19 21 32 30 30 29 29 25 22 19 17 14 11 8 5 3 2 1 4 4 7 10 14 16 17 17 19 21 20 19 21 19 19 21 25 27 26 27 30 25 22 21
21 21 22 26 32 31 29 30 27 25 23 19 15 12 9 6 5 5 7 7 9 8 10 12 14 13 13 14 14 16 18 20 20 19 19 19 21 23 26 29 28 28 26 25
25 25 29 31 32 32 30 28 26 25 22 19 14 10 7 9 11 12 10 8 8 10 11 14 12 10 11 13 15 14 14 17 18 19 20 21 21 24 26 25 28 30 27 25
27 29 31 31 31 31 30 27 24 21 18 13 9 8 10 13 13 10 6 5 5 11 15 15 14 11 9 11 12 13 13 14 16 18 19 18 20 21 22 22 20 21 24 23
31 31 31 32 33 32 30 26 21 15 10 6 8 11 16 17 12 9 5 3 5 10 13 13 14 14 14 15 16 16 15 14 13 14 15 15 14 18 18 18 18 23 27 27
31 33 33 34 33 29 27 24 19 14 9 8 15 17 15 11 8 4 4 0 3 7 9 8 10 12 15 18 21 23 20 11 11 11 10 12 14 13 14 13 20 16 17 20
32 35 34 31 26 27 25 23 19 13 12 17 18 18 16 13 11 11 11 9 5 5 7 7 8 12 11 14 16 20 20 21 18 14 15 18 18 15 14 14 12 14 17 15
32 36 35 31 27 25 22 19 16 13 18 18 18 16 14 13 12 9 8 11 10 7 6 8 7 9 10 10 13 14 13 15 19 19 21 26 23 16 11 8 6 8 10 14

GFSNGP_850_spd_114.txt.gz
Wind_Speed
5 3 6 8 4 7 1 3 4 5 4 5 7 5 5 12 19 24 29 32 38 36 34 34 29 29 32 31 28 26 26 28 26 22 18 18 24 12 21 19 17 19 18 16
1 3 4 1 8 3 4 4 1 4 2 3 8 9 11 8 15 20 25 30 33 33 24 22 25 30 32 27 19 16 22 27 26 22 21 17 21 16 18 19 19 20 22 16
5 6 4 4 0 3 1 4 3 2 3 5 6 12 10 10 13 13 14 21 28 31 32 28 25 23 21 19 21 22 21 22 19 17 19 15 22 20 22 24 21 18 14 15
2 0 4 4 1 5 2 2 4 4 2 7 14 20 21 16 13 11 11 14 16 19 20 20 23 24 22 20 19 22 23 22 22 22 22 20 23 20 19 17 16 15 17 15
3 3 3 4 6 5 4 5 3 5 5 12 18 22 23 19 18 17 13 8 7 12 13 16 19 23 19 15 22 21 17 16 22 17 17 18 25 23 22 19 16 14 11 11
3 2 4 4 2 8 7 5 4 8 11 15 2 8 3 13 15 15 11 8 7 6 6 12 16 19 20 15 16 13 15 13 12 16 19 22 22 24 19 12 10 11 10 10
1 2 6 5 1 8 3 6 10 12 12 12 6 10 21 16 14 12 13 14 11 7 5 3 4 5 21 22 17 17 20 18 17 19 19 22 18 13 9 10 10 10 10 9
2 1 3 1 2 5 3 3 10 9 12 8 20 22 18 14 15 15 17 15 14 10 10 9 8 5 8 10 12 13 15 19 18 23 15 16 10 8 9 12 11 10 10 10
6 5 5 7 7 6 6 9 8 10 15 17 22 17 15 17 16 15 15 15 16 13 13 12 12 11 10 11 10 10 10 13 13 20 10 9 10 11 12 11 10 10 11 9
2 3 2 1 3 6 7 7 11 16 18 17 14 14 17 19 18 15 16 15 15 12 12 11 10 10 10 11 11 11 9 9 9 9 8 9 10 9 9 10 12 11 10 8
1 3 3 2 8 8 6 8 10 18 11 12 14 16 18 21 23 20 21 21 16 11 12 12 12 11 9 9 9 8 8 7 7 7 6 4 3 4 5 7 7 8 8 8
5 15 6 13 15 14 12 9 13 16 16 13 14 17 18 19 20 20 22 20 19 17 14 14 14 13 11 11 10 9 9 8 6 5 5 5 4 4 4 4 4 6 6 6
2 21 11 18 18 16 17 12 10 11 12 14 13 16 16 17 16 15 15 15 15 15 16 15 13 12 11 11 11 10 10 10 9 7 4 4 4 2 1 1 2 3 4 5
5 20 17 25 23 20 14 11 7 7 14 14 15 15 15 14 13 11 11 10 12 12 12 12 11 12 11 10 9 8 7 7 7 6 6 5 4 5 6 6 7 7 6 7
15 19 20 24 22 23 20 14 11 10 13 15 14 15 15 15 12 9 7 6 6 6 5 5 6 4 4 4 4 4 5 6 7 7 8 8 9 10 11 10 10 11 10 10
19 11 18 24 26 26 22 19 16 15 13 14 16 16 16 14 12 10 9 7 4 3 3 2 2 2 4 6 7 7 8 8 9 9 10 12 13 14 14 14 14 13 13 12
21 17 21 26 28 30 28 23 16 16 14 15 15 14 15 14 13 11 9 6 4 3 1 1 2 4 5 6 9 11 11 12 14 15 15 15 15 15 15 17 16 17 17 15
19 16 17 18 28 31 31 26 20 20 17 15 17 15 12 8 6 5 5 4 4 2 1 2 4 7 10 12 14 16 18 18 18 18 19 20 19 19 20 20 20 20 18 17
23 18 18 17 21 30 29 27 25 23 23 23 21 17 12 7 5 3 0 2 5 7 8 9 11 13 15 15 16 17 18 18 18 18 18 19 19 20 21 22 22 23 22 20
28 20 18 18 25 31 30 29 27 29 27 24 21 19 16 14 10 6 5 6 5 5 7 10 11 12 12 11 11 13 14 15 17 18 17 18 18 18 18 19 19 21 24 25
28 24 21 20 17 30 30 26 27 29 27 24 20 18 15 12 7 4 5 4 2 4 6 9 11 11 11 10 11 13 14 14 15 17 18 19 20 20 21 20 23 26 26 26
27 24 24 23 20 27 30 29 30 28 25 22 18 15 12 10 9 11 9 8 7 8 8 9 10 10 9 10 12 13 13 14 14 14 15 17 19 22 23 24 26 27 26 24
27 24 21 23 25 29 29 30 29 27 25 22 18 14 11 9 13 15 11 7 4 7 9 9 9 11 11 12 12 12 13 13 13 13 15 16 18 19 20 20 21 20 18 16
28 26 25 26 28 31 32 31 28 25 21 17 14 12 14 19 19 14 10 7 4 4 6 7 8 10 10 13 14 16 16 12 11 12 13 14 15 17 19 19 18 14 13 13
25 25 28 30 31 32 32 31 28 24 21 17 14 13 18 19 18 15 11 7 4 2 3 4 4 7 7 10 11 14 16 18 18 19 16 16 24 26 21 19 15 12 15 15
23 27 29 29 29 31 32 31 29 26 21 17 16 21 25 22 17 14 11 9 9 6 2 2 3 5 5 6 10 11 12 14 15 15 17 22 28 33 14 10 11 10 8 11
22 28 31 32 31 31 31 29 27 24 20 16 17 24 23 20 17 15 13 12 13 13 9 5 4 4 5 7 10 11 12 12 14 16 18 20 25 27 17 9 6 6 10 11

GFSNGP_850_spd_117.txt.gz
Wind_Speed
4 1 6 3 8 7 1 4 6 3 6 8 9 7 5 3 9 13 20 25 31 38 34 36 31 26 28 30 33 33 31 31 30 27 23 22 22 21 18 19 18 16 14 13
4 7 5 5 5 5 3 4 8 6 4 5 11 3 2 7 11 14 15 17 20 29 38 33 35 30 24 27 24 31 31 32 29 28 26 25 23 22 25 22 22 17 14 16
6 5 2 6 9 7 1 5 4 4 5 7 5 3 4 4 7 10 11 12 13 19 23 28 28 26 25 24 21 19 21 21 24 29 31 29 25 20 19 17 18 18 17 18
1 6 11 4 3 8 7 5 6 5 4 1 4 9 12 9 8 9 9 11 14 18 24 25 21 18 17 14 21 20 20 26 22 29 33 25 23 19 18 18 15 15 14 14
3 7 2 6 7 7 9 5 6 4 3 8 8 15 14 13 12 10 8 8 10 16 18 17 18 18 19 20 18 19 24 23 24 24 24 25 24 21 22 20 16 14 14 16
3 3 4 0 3 2 5 4 9 11 11 13 5 4 2 7 11 10 10 10 8 8 16 16 13 18 19 19 18 15 18 19 18 20 21 17 14 14 16 20 18 19 18 12
3 4 4 4 0 2 3 1 4 10 13 14 3 3 11 10 11 13 13 11 8 7 7 6 7 13 18 24 19 15 14 15 14 11 12 13 14 15 17 16 21 18 15 13
2 3 5 3 2 4 2 4 2 10 8 11 14 17 10 12 14 13 15 13 12 12 10 9 7 7 13 20 16 16 16 19 20 12 4 4 6 10 10 9 11 10 8 9
5 2 2 4 9 6 8 2 1 10 15 23 23 12 8 14 13 14 15 15 15 15 17 16 16 13 14 14 10 7 6 8 13 13 8 3 3 8 7 13 14 12 9 12
2 1 3 4 9 6 4 3 7 16 19 19 17 13 12 13 13 14 14 15 15 15 17 19 18 17 17 16 13 12 11 11 12 9 17 11 12 11 13 13 14 13 12 8
2 4 2 3 2 2 5 9 14 15 15 15 18 17 17 18 17 16 16 15 15 16 18 18 17 18 18 17 14 13 13 13 12 8 6 6 7 7 7 6 6 6 5 4
1 10 3 7 6 8 7 10 17 15 16 16 21 22 22 24 22 19 18 17 17 17 19 20 18 19 18 17 14 14 15 15 14 12 11 8 7 6 4 2 1 1 3 3
2 10 5 12 11 10 7 7 13 16 17 21 21 22 22 23 20 19 19 19 19 19 18 18 18 17 17 17 16 16 15 15 13 12 10 9 8 6 4 2 2 2 3 4
6 17 8 18 16 14 10 8 9 11 13 14 20 20 19 19 18 15 17 17 16 15 16 16 16 15 14 13 11 10 10 10 9 8 7 5 4 4 4 4 4 6 6 6
14 21 14 21 19 16 13 11 8 10 17 16 20 19 18 17 15 12 12 12 11 11 11 10 8 8 7 6 5 5 5 4 4 4 4 4 5 6 7 7 8 9 10 11
21 19 11 24 25 20 16 12 10 12 15 17 19 18 18 15 12 10 10 9 7 6 6 4 3 3 3 1 1 2 3 4 5 5 7 7 9 9 10 10 10 10 10 12
22 13 18 20 26 25 21 16 12 13 14 17 20 20 19 14 12 10 9 8 6 5 5 4 3 2 0 3 5 6 6 7 8 10 11 12 13 13 14 14 15 15 15 15
20 17 17 19 25 27 24 21 18 16 15 18 18 18 17 14 14 14 11 8 5 3 4 3 3 5 8 10 11 12 14 14 14 14 14 13 12 13 14 15 16 17 16 16
25 20 19 19 17 22 27 25 21 21 20 20 20 20 17 16 15 13 9 6 4 2 2 2 4 5 7 8 8 7 8 8 9 9 9 10 10 10 11 12 13 13 13 15
23 23 22 21 19 22 29 29 26 25 23 24 23 21 19 16 12 9 5 2 1 2 3 4 5 6 5 5 5 6 7 7 8 8 9 9 8 9 11 13 16 15 15 16
25 24 22 23 19 19 29 31 30 28 26 25 23 23 18 14 10 6 3 1 2 3 4 6 7 7 7 6 7 8 8 9 9 9 9 9 10 9 11 13 16 17 18 20
27 25 22 22 19 19 28 32 30 29 29 29 24 19 17 14 10 6 4 3 4 3 4 4 5 6 8 9 9 9 9 9 9 10 11 12 13 14 15 16 16 17 17 17
29 26 25 21 22 18 24 29 29 31 30 28 25 21 16 10 8 10 11 9 6 4 6 7 8 8 9 11 12 13 12 11 11 11 11 12 13 16 21 21 22 20 17 14
25 24 23 21 23 24 24 27 29 28 29 26 21 16 13 12 14 15 13 11 8 7 6 5 6 6 7 9 11 12 13 14 13 13 14 16 19 24 30 20 16 16 13 12
23 25 24 23 23 24 25 27 28 30 28 25 21 17 14 14 13 18 17 14 10 7 5 3 2 4 4 6 7 8 9 11 11 13 16 17 22 26 26 22 10 9 11 11
22 25 25 24 24 25 27 29 31 30 29 25 22 18 17 19 20 20 18 14 10 7 4 2 2 1 1 3 6 9 9 8 9 11 13 17 19 22 24 19 13 9 8 10
20 22 23 24 25 27 28 31 32 31 28 25 21 18 20 25 26 22 18 15 12 11 10 8 5 5 6 6 7 7 7 6 9 11 13 14 15 17 18 21 16 11 12 11

GFSNGP_850_spd_123.txt.gz
Wind_Speed
16 18 15 15 7 8 21 37 16 9 12 7 8 17 6 3 2 10 12 20 19 23 21 11 9 19 24 22 24 22 21 20 21 20 19 18 18 18 17 16 15 15 15 15
13 17 16 14 14 27 33 18 2 18 12 7 15 6 7 7 8 12 15 16 20 26 33 36 29 19 31 25 18 23 23 22 20 20 19 19 19 19 20 19 18 16 16 16
14 12 11 16 14 15 18 18 4 10 12 16 14 9 9 14 4 6 14 10 14 22 25 37 27 28 24 28 32 23 20 18 23 16 16 16 18 21 22 21 20 19 19 19
12 14 16 8 9 2 32 16 13 22 5 13 7 10 12 10 12 8 7 10 5 3 13 23 29 21 22 28 23 15 14 15 16 16 15 16 19 23 24 24 24 23 20 20
11 13 13 10 5 16 20 19 16 19 4 9 12 13 10 11 10 7 9 11 8 4 6 9 15 21 19 23 22 18 13 11 9 10 15 18 18 23 24 24 27 30 25 21
12 9 5 11 8 6 41 10 13 15 7 3 5 6 5 7 5 7 11 5 4 5 10 11 12 11 14 18 15 16 16 10 7 6 9 10 16 21 23 28 31 30 30 22
12 9 8 3 19 9 7 4 20 4 7 8 7 7 11 8 8 10 14 8 6 7 11 19 16 15 18 12 14 11 13 13 9 7 9 8 13 20 8 7 6 13 17 16
6 4 8 6 2 7 5 9 15 18 16 19 16 15 14 13 11 12 17 10 9 5 4 8 15 16 17 20 19 15 15 13 11 11 6 1 2 2 2 2 5 1 8 7
5 3 3 4 8 4 7 9 5 9 10 18 17 16 15 16 13 14 17 16 13 15 13 9 7 8 14 12 13 16 13 12 10 8 6 10 9 7 7 7 8 12 11 9
4 7 4 2 2 3 2 4 4 8 14 17 17 15 13 14 14 14 14 15 14 16 19 20 18 15 12 9 7 8 9 7 7 10 13 13 7 6 5 4 2 3 6 8
8 7 4 5 5 8 7 9 10 13 14 14 15 15 14 13 15 14 15 11 12 14 16 18 19 21 21 20 17 17 15 12 11 9 8 8 7 7 3 3 2 4 7 9
2 3 10 9 11 11 10 10 12 13 14 14 14 15 15 14 14 15 13 12 13 15 17 16 17 18 18 17 18 19 18 16 16 14 13 11 9 9 9 7 5 6 5 3
2 2 10 11 10 14 15 13 11 13 15 18 16 16 16 15 13 14 14 15 14 15 16 15 15 17 15 13 17 16 16 17 13 10 9 8 8 7 10 10 9 7 5 3
4 8 9 12 10 10 14 13 14 15 16 16 18 17 17 17 16 15 15 15 15 14 14 14 13 12 13 14 14 15 15 12 9 9 8 8 7 6 5 5 7 7 4 3
9 10 12 11 12 10 13 15 18 20 17 17 17 17 17 17 17 16 16 15 14 13 12 11 10 9 9 8 8 9 7 5 5 5 4 5 6 7 6 4 3 1 6 8
12 11 11 15 14 12 12 14 19 20 20 18 18 16 16 15 15 14 12 11 12 11 11 10 8 7 5 4 4 3 3 1 3 1 2 2 1 2 3 4 4 4 5 6
17 14 14 17 17 14 13 13 13 17 20 18 18 18 17 15 14 12 10 9 10 10 9 8 7 6 5 4 3 2 2 3 3 0 2 3 3 3 4 5 6 6 7 8
15 15 17 17 19 17 14 12 12 15 18 21 22 20 18 17 15 14 13 11 10 9 7 6 4 2 0 2 1 2 2 3 3 2 2 2 2 3 3 4 5 7 8 10
18 17 18 18 19 19 17 15 14 14 16 20 21 20 19 17 17 16 14 11 8 5 3 3 3 2 1 2 6 1 1 1 0 1 1 2 3 4 4 5 6 8 9 10
19 19 19 19 17 19 21 18 17 16 18 19 20 20 19 19 18 16 14 10 6 8 5 3 3 2 2 2 8 3 2 2 2 2 2 3 2 3 4 6 8 10 12 13
23 20 19 21 20 19 22 21 21 20 22 22 22 22 21 19 17 16 14 9 8 7 7 7 6 3 4 5 5 4 4 3 3 2 3 3 4 4 5 6 8 10 12 13
23 23 22 23 23 21 22 23 23 23 24 24 23 22 22 21 19 15 11 8 8 6 7 5 6 11 7 10 4 3 4 4 4 3 2 2 2 3 5 7 10 11 11 10
25 23 23 26 25 23 22 24 25 26 26 27 26 25 24 21 18 16 13 12 10 9 10 9 9 11 11 8 7 6 6 6 5 4 2 1 2 4 6 8 9 10 9 8
23 22 23 26 25 24 24 24 25 26 28 27 28 26 24 20 16 13 12 14 14 14 13 12 13 13 12 8 8 7 6 6 5 4 1 3 2 4 6 8 9 9 8 9
23 23 22 24 26 26 25 24 25 24 26 25 25 24 23 18 16 16 16 16 19 16 14 14 14 14 11 8 7 6 6 6 5 4 1 1 2 4 6 9 9 9 9 9
19 24 25 25 25 25 25 25 26 25 27 27 25 25 23 20 17 17 17 17 18 19 15 17 15 15 10 10 8 6 6 6 3 2 2 2 3 3 4 7 9 9 8 9
17 19 21 23 24 25 25 25 25 26 28 28 27 26 25 22 20 18 18 17 17 18 17 13 14 13 11 10 8 7 6 6 7 5 5 5 4 4 5 5 6 8 9 9